Observation data for Odell on 12/08/2018      Previous  Date       Current Mesonet Observations  Soil Data  Daily Summary Page  Observations in Plain Language
KOD1 080600Z 00011KT 00/00 A3034 RMK A01 T000000-2  RH  099%=      5-min Rain = 0
KOD1 080601Z 01010KT 00/00 A3034 RMK A01 T000000-1  RH  099%=      5-min Rain = 0
KOD1 080602Z 01011KT 00/00 A3034 RMK A01 T000000-1  RH  099%=      5-min Rain = 0
KOD1 080603Z 01010KT 00/00 A3034 RMK A01 T000000-1  RH  099%=      5-min Rain = 0
KOD1 080604Z 00010KT 00/00 A3034 RMK A01 T000000-1  RH  099%=      5-min Rain = 0
KOD1 080605Z 00012KT 00/00 A3034 RMK A01 T000000-1  RH  099%=      5-min Rain = 0
KOD1 080606Z 00011KT 00/00 A3034 RMK A01 T000000-1  RH  099%=      5-min Rain = 0
KOD1 080607Z 36009KT 00/M00 A3034 RMK A01 T00011001  RH  099%=      5-min Rain = 0
KOD1 080608Z 00010KT 00/M00 A3034 RMK A01 T00011001  RH  099%=      5-min Rain = 0
KOD1 080609Z 01010KT 00/M00 A3034 RMK A01 T00011001  RH  099%=      5-min Rain = 0
KOD1 080610Z 01011KT 00/M00 A3033 RMK A01 T00011001  RH  099%=      5-min Rain = 0
KOD1 080611Z 01010KT 00/M00 A3033 RMK A01 T00011001  RH  099%=      5-min Rain = 0
KOD1 080612Z 00011KT 00/M00 A3033 RMK A01 T00011001  RH  099%=      5-min Rain = 0
KOD1 080613Z 01014KT 00/M00 A3033 RMK A01 T00011001  RH  099%=      5-min Rain = 0
KOD1 080614Z 01012KT 00/M00 A3033 RMK A01 T00011001  RH  099%=      5-min Rain = 0
KOD1 080615Z 01014KT 00/M00 A3033 RMK A01 T00011001  RH  099%=      5-min Rain = 0
KOD1 080616Z 00013KT 00/M00 A3033 RMK A01 T00011001  RH  099%=      5-min Rain = 0
KOD1 080617Z 01012KT 00/M00 A3033 RMK A01 T00011001  RH  099%=      5-min Rain = 0
KOD1 080618Z 01013KT 00/M00 A3033 RMK A01 T00011001  RH  099%=      5-min Rain = 0
KOD1 080619Z 01011KT 00/M00 A3033 RMK A01 T00011001  RH  099%=      5-min Rain = 0
KOD1 080620Z 01011KT 00/00 A3033 RMK A01 T000100-0  RH  099%=      5-min Rain = 0
KOD1 080621Z 01011KT 00/00 A3034 RMK A01 T000100-0  RH  099%=      5-min Rain = 0
KOD1 080622Z 01010KT 00/00 A3034 RMK A01 T000100-0  RH  099%=      5-min Rain = 0
KOD1 080623Z 01013KT 00/00 A3033 RMK A01 T000100-0  RH  099%=      5-min Rain = 0
KOD1 080624Z 01013KT 00/00 A3033 RMK A01 T000100-0  RH  099%=      5-min Rain = 0
KOD1 080625Z 01012KT 00/00 A3033 RMK A01 T000100-0  RH  099%=      5-min Rain = 0
KOD1 080626Z 00012KT 00/00 A3033 RMK A01 T000100-0  RH  099%=      5-min Rain = 0
KOD1 080627Z 01013KT 00/00 A3033 RMK A01 T000100-0  RH  099%=      5-min Rain = 0
KOD1 080628Z 01014KT 00/M00 A3033 RMK A01 T00011001  RH  099%=      5-min Rain = 0
KOD1 080629Z 01011KT 00/M00 A3033 RMK A01 T00011001  RH  099%=      5-min Rain = 0
KOD1 080630Z 00013KT 00/M00 A3033 RMK A01 T00011001  RH  099%=      5-min Rain = 0
KOD1 080631Z 01015KT 00/M00 A3034 RMK A01 T00011001  RH  099%=      5-min Rain = 0
KOD1 080632Z 01015KT 00/M00 A3034 RMK A01 T00011001  RH  099%=      5-min Rain = 0
KOD1 080633Z 01017KT 00/00 A3034 RMK A01 T000000-2  RH  099%=      5-min Rain = 0
KOD1 080634Z 01013KT 00/00 A3034 RMK A01 T000000-2  RH  099%=      5-min Rain = 0
KOD1 080635Z 01015KT 00/00 A3034 RMK A01 T000000-2  RH  099%=      5-min Rain = 0
KOD1 080636Z 01015KT 00/00 A3034 RMK A01 T00-000-2  RH  099%=      5-min Rain = 0
KOD1 080637Z 01014KT 00/00 A3034 RMK A01 T000000-2  RH  099%=      5-min Rain = 0
KOD1 080638Z 01015KT 00/00 A3034 RMK A01 T000000-2  RH  099%=      5-min Rain = 0
KOD1 080639Z 01011KT 00/00 A3034 RMK A01 T000000-1  RH  099%=      5-min Rain = 0
KOD1 080640Z 01011KT 00/00 A3034 RMK A01 T000000-1  RH  099%=      5-min Rain = 0
KOD1 080641Z 00012KT 00/M00 A3034 RMK A01 T00011001  RH  099%=      5-min Rain = 0
KOD1 080642Z 00010KT 00/M00 A3034 RMK A01 T00011001  RH  099%=      5-min Rain = 0
KOD1 080643Z 01014KT 00/M00 A3034 RMK A01 T00011001  RH  099%=      5-min Rain = 0
KOD1 080644Z 00012KT 00/M00 A3034 RMK A01 T00011001  RH  099%=      5-min Rain = 0
KOD1 080645Z 00015KT 00/M00 A3034 RMK A01 T00011001  RH  099%=      5-min Rain = 0
KOD1 080646Z 00014KT 00/M00 A3034 RMK A01 T00011001  RH  099%=      5-min Rain = 0
KOD1 080647Z 01014KT 00/M00 A3034 RMK A01 T00011001  RH  099%=      5-min Rain = 0
KOD1 080648Z 00014KT 00/M00 A3034 RMK A01 T00011001  RH  099%=      5-min Rain = 0
KOD1 080649Z 00011KT 00/M00 A3034 RMK A01 T00011001  RH  099%=      5-min Rain = 0
KOD1 080650Z 01012KT 00/M00 A3034 RMK A01 T00011001  RH  099%=      5-min Rain = 0
KOD1 080651Z 01012KT 00/M00 A3034 RMK A01 T00011001  RH  099%=      5-min Rain = 0
KOD1 080652Z 00012KT 00/M00 A3035 RMK A01 T00011001  RH  099%=      5-min Rain = 0
KOD1 080653Z 00013KT 00/M00 A3035 RMK A01 T00011001  RH  099%=      5-min Rain = 0
KOD1 080654Z 01014KT 00/M00 A3035 RMK A01 T00011001  RH  099%=      5-min Rain = 0
KOD1 080655Z 01013KT 00/M00 A3034 RMK A01 T00011001  RH  099%=      5-min Rain = 0
KOD1 080656Z 01013KT 00/M00 A3034 RMK A01 T00011001  RH  099%=      5-min Rain = 0
KOD1 080657Z 01011KT 00/M00 A3034 RMK A01 T00011001  RH  099%=      5-min Rain = 0
KOD1 080658Z 01012KT 00/M00 A3034 RMK A01 T00011001  RH  099%=      5-min Rain = 0
KOD1 080659Z 01014KT 00/M00 A3034 RMK A01 T00011001  RH  099%=      5-min Rain = 0
KOD1 080700Z 00013G18KT 00/00 A3034 RMK A01 T000000-2  RH  099%=      5-min Rain = 0
KOD1 080701Z 00015KT 00/00 A3034 RMK A01 T000000-2  RH  099%=      5-min Rain = 0
KOD1 080702Z 01014KT 00/00 A3033 RMK A01 T000000-2  RH  099%=      5-min Rain = 0
KOD1 080703Z 01014KT 00/00 A3033 RMK A01 T00-000-2  RH  099%=      5-min Rain = 0
KOD1 080704Z 01015KT 00/00 A3033 RMK A01 T00-000-2  RH  099%=      5-min Rain = 0
KOD1 080705Z 01015KT 00/00 A3033 RMK A01 T00-000-2  RH  099%=      5-min Rain = 0
KOD1 080706Z 01013G18KT 00/00 A3033 RMK A01 T00-000-2  RH  099%=      5-min Rain = 0
KOD1 080707Z 01014KT 00/00 A3033 RMK A01 T00-000-2  RH  099%=      5-min Rain = 0
KOD1 080708Z 01015KT M00/M00 A3033 RMK A01 T10011003  RH  099%=      5-min Rain = 0
KOD1 080709Z 01015KT M00/M00 A3033 RMK A01 T10011003  RH  099%=      5-min Rain = 0
KOD1 080710Z 01012KT M00/M00 A3033 RMK A01 T10011003  RH  099%=      5-min Rain = 0
KOD1 080711Z 01011KT M00/M00 A3033 RMK A01 T10011003  RH  099%=      5-min Rain = 0
KOD1 080712Z 01015KT M00/M00 A3033 RMK A01 T10011003  RH  099%=      5-min Rain = 0
KOD1 080713Z 01014KT M00/M00 A3033 RMK A01 T10011003  RH  099%=      5-min Rain = 0
KOD1 080714Z 01012KT M00/M00 A3033 RMK A01 T10011003  RH  099%=      5-min Rain = 0
KOD1 080715Z 00011KT M00/M00 A3033 RMK A01 T10011003  RH  099%=      5-min Rain = 0
KOD1 080716Z 00012KT M00/M00 A3033 RMK A01 T10011003  RH  099%=      5-min Rain = 0
KOD1 080717Z 01013KT M00/M00 A3033 RMK A01 T10011003  RH  098%=      5-min Rain = 0
KOD1 080718Z 00013KT M00/M00 A3034 RMK A01 T10011003  RH  098%=      5-min Rain = 0
KOD1 080719Z 01015KT M00/M00 A3034 RMK A01 T10011004  RH  098%=      5-min Rain = 0
KOD1 080720Z 00014KT M00/M00 A3033 RMK A01 T10011004  RH  098%=      5-min Rain = 0.01
KOD1 080721Z 01014KT M00/M00 A3033 RMK A01 T10021004  RH  098%=      5-min Rain = 0
KOD1 080722Z 01015KT M00/M01 A3033 RMK A01 T10021005  RH  098%=      5-min Rain = 0
KOD1 080723Z 01016KT M00/M01 A3033 RMK A01 T10021005  RH  098%=      5-min Rain = 0
KOD1 080724Z 01016KT M00/M01 A3033 RMK A01 T10021005  RH  098%=      5-min Rain = 0
KOD1 080725Z 01014KT M00/M01 A3033 RMK A01 T10031005  RH  098%=      5-min Rain = 0
KOD1 080726Z 01014KT M00/M01 A3033 RMK A01 T10021005  RH  098%=      5-min Rain = 0
KOD1 080727Z 01012KT M00/M01 A3033 RMK A01 T10021005  RH  098%=      5-min Rain = 0
KOD1 080728Z 01011KT M00/M01 A3033 RMK A01 T10021005  RH  098%=      5-min Rain = 0
KOD1 080729Z 01013KT M00/M01 A3033 RMK A01 T10021005  RH  098%=      5-min Rain = 0
KOD1 080730Z 01014KT M00/M01 A3033 RMK A01 T10031006  RH  098%=      5-min Rain = 0
KOD1 080731Z 01016KT M00/M01 A3033 RMK A01 T10031006  RH  098%=      5-min Rain = 0
KOD1 080732Z 01016KT M00/M01 A3033 RMK A01 T10031007  RH  098%=      5-min Rain = 0
KOD1 080733Z 01014KT M00/M01 A3033 RMK A01 T10031007  RH  098%=      5-min Rain = 0
KOD1 080734Z 01014KT M00/M01 A3033 RMK A01 T10031007  RH  098%=      5-min Rain = 0
KOD1 080735Z 02014KT M00/M01 A3033 RMK A01 T10041007  RH  097%=      5-min Rain = 0
KOD1 080736Z 02014KT M00/M01 A3033 RMK A01 T10041008  RH  097%=      5-min Rain = 0
KOD1 080737Z 01015KT M00/M01 A3033 RMK A01 T10041007  RH  097%=      5-min Rain = 0
KOD1 080738Z 02012KT M00/M01 A3033 RMK A01 T10041008  RH  097%=      5-min Rain = 0
KOD1 080739Z 02014KT M00/M01 A3033 RMK A01 T10031007  RH  097%=      5-min Rain = 0
KOD1 080740Z 01012KT M00/M01 A3033 RMK A01 T10031007  RH  097%=      5-min Rain = 0
KOD1 080741Z 01012KT M00/M01 A3033 RMK A01 T10031007  RH  097%=      5-min Rain = 0
KOD1 080742Z 02013KT M00/M01 A3033 RMK A01 T10031007  RH  097%=      5-min Rain = 0
KOD1 080743Z 02014KT M00/M01 A3033 RMK A01 T10031007  RH  097%=      5-min Rain = 0
KOD1 080744Z 01011KT M00/M01 A3033 RMK A01 T10031007  RH  097%=      5-min Rain = 0
KOD1 080745Z 02011KT M00/M01 A3033 RMK A01 T10031007  RH  097%=      5-min Rain = 0
KOD1 080746Z 01011KT M00/M01 A3033 RMK A01 T10031007  RH  097%=      5-min Rain = 0
KOD1 080747Z 01010KT M00/M01 A3034 RMK A01 T10031007  RH  097%=      5-min Rain = 0
KOD1 080748Z 01013KT M00/M01 A3034 RMK A01 T10031007  RH  097%=      5-min Rain = 0
KOD1 080749Z 01012KT M00/M01 A3034 RMK A01 T10031007  RH  097%=      5-min Rain = 0
KOD1 080750Z 01012KT M00/M01 A3034 RMK A01 T10031007  RH  097%=      5-min Rain = 0
KOD1 080751Z 01010KT M00/M01 A3034 RMK A01 T10031007  RH  097%=      5-min Rain = 0
KOD1 080752Z 01011KT M00/M01 A3034 RMK A01 T10031006  RH  097%=      5-min Rain = 0
KOD1 080753Z 01012KT M00/M01 A3034 RMK A01 T10031006  RH  097%=      5-min Rain = 0
KOD1 080754Z 01013KT M00/M01 A3034 RMK A01 T10031006  RH  097%=      5-min Rain = 0
KOD1 080755Z 01010KT M00/M01 A3034 RMK A01 T10031006  RH  098%=      5-min Rain = 0
KOD1 080756Z 01010KT M00/M01 A3034 RMK A01 T10021006  RH  098%=      5-min Rain = 0
KOD1 080757Z 01011KT M00/M01 A3034 RMK A01 T10021005  RH  098%=      5-min Rain = 0
KOD1 080758Z 01011KT M00/M01 A3034 RMK A01 T10021006  RH  098%=      5-min Rain = 0
KOD1 080759Z 01012KT M00/M01 A3034 RMK A01 T10031006  RH  097%=      5-min Rain = 0
KOD1 080800Z 01014KT M00/M01 A3034 RMK A01 T10031007  RH  097%=      5-min Rain = 0
KOD1 080801Z 01013KT M00/M01 A3034 RMK A01 T10031007  RH  097%=      5-min Rain = 0
KOD1 080802Z 01014KT M00/M01 A3034 RMK A01 T10041008  RH  097%=      5-min Rain = 0
KOD1 080803Z 01013KT M00/M01 A3034 RMK A01 T10041008  RH  097%=      5-min Rain = 0
KOD1 080804Z 01011KT M00/M01 A3034 RMK A01 T10041008  RH  097%=      5-min Rain = 0
KOD1 080805Z 01010KT M00/M01 A3034 RMK A01 T10041008  RH  097%=      5-min Rain = 0
KOD1 080806Z 01014KT M00/M01 A3034 RMK A01 T10041008  RH  097%=      5-min Rain = 0
KOD1 080807Z 01013KT M00/M01 A3034 RMK A01 T10041008  RH  097%=      5-min Rain = 0
KOD1 080808Z 01011KT M00/M01 A3034 RMK A01 T10041008  RH  097%=      5-min Rain = 0
KOD1 080809Z 00013KT M00/M01 A3034 RMK A01 T10041009  RH  097%=      5-min Rain = 0
KOD1 080810Z 01013KT M00/M01 A3034 RMK A01 T10041009  RH  097%=      5-min Rain = 0
KOD1 080811Z 01013KT M00/M01 A3034 RMK A01 T10041009  RH  097%=      5-min Rain = 0
KOD1 080812Z 01011KT M00/M01 A3034 RMK A01 T10041009  RH  097%=      5-min Rain = 0
KOD1 080813Z 01011KT M00/M01 A3034 RMK A01 T10041009  RH  097%=      5-min Rain = 0
KOD1 080814Z 01014KT M00/M01 A3034 RMK A01 T10041009  RH  097%=      5-min Rain = 0
KOD1 080815Z 01011KT M00/M01 A3034 RMK A01 T10041009  RH  097%=      5-min Rain = 0
KOD1 080816Z 01012KT M00/M01 A3034 RMK A01 T10041009  RH  097%=      5-min Rain = 0.01
KOD1 080817Z 01011KT M00/M01 A3034 RMK A01 T10041009  RH  097%=      5-min Rain = 0
KOD1 080818Z 01011KT M00/M01 A3034 RMK A01 T10041008  RH  097%=      5-min Rain = 0
KOD1 080819Z 01012KT M00/M01 A3033 RMK A01 T10041009  RH  097%=      5-min Rain = 0
KOD1 080820Z 01011KT M00/M01 A3033 RMK A01 T10041009  RH  097%=      5-min Rain = 0
KOD1 080821Z 01011KT M00/M01 A3033 RMK A01 T10041009  RH  097%=      5-min Rain = 0
KOD1 080822Z 01011KT M00/M01 A3033 RMK A01 T10041009  RH  097%=      5-min Rain = 0
KOD1 080823Z 01012KT M00/M01 A3033 RMK A01 T10041009  RH  097%=      5-min Rain = 0
KOD1 080824Z 01012KT M00/M01 A3033 RMK A01 T10041009  RH  097%=      5-min Rain = 0
KOD1 080825Z 01010KT M00/M01 A3033 RMK A01 T10041009  RH  097%=      5-min Rain = 0
KOD1 080826Z 01011KT M00/M01 A3033 RMK A01 T10041008  RH  097%=      5-min Rain = 0
KOD1 080827Z 01012KT M00/M01 A3033 RMK A01 T10041008  RH  097%=      5-min Rain = 0
KOD1 080828Z 01011KT M00/M01 A3033 RMK A01 T10041009  RH  097%=      5-min Rain = 0
KOD1 080829Z 01012KT M00/M01 A3033 RMK A01 T10041008  RH  097%=      5-min Rain = 0
KOD1 080830Z 01010KT M00/M01 A3033 RMK A01 T10041009  RH  097%=      5-min Rain = 0
KOD1 080831Z 01011KT M00/M01 A3033 RMK A01 T10041008  RH  097%=      5-min Rain = 0
KOD1 080832Z 01010KT M00/M01 A3033 RMK A01 T10041009  RH  097%=      5-min Rain = 0
KOD1 080833Z 01009KT M00/M01 A3033 RMK A01 T10031008  RH  097%=      5-min Rain = 0
KOD1 080834Z 02010KT M00/M01 A3033 RMK A01 T10031008  RH  097%=      5-min Rain = 0
KOD1 080835Z 01009KT M00/M01 A3033 RMK A01 T10031008  RH  097%=      5-min Rain = 0.01
KOD1 080836Z 01010KT M00/M01 A3033 RMK A01 T10031008  RH  097%=      5-min Rain = 0
KOD1 080837Z 01012KT M00/M01 A3033 RMK A01 T10031008  RH  097%=      5-min Rain = 0
KOD1 080838Z 01010KT M00/M01 A3033 RMK A01 T10041009  RH  097%=      5-min Rain = 0
KOD1 080839Z 01011KT M00/M01 A3033 RMK A01 T10041008  RH  097%=      5-min Rain = 0
KOD1 080840Z 01012KT M00/M01 A3033 RMK A01 T10041009  RH  097%=      5-min Rain = 0
KOD1 080841Z 01010KT M00/M01 A3033 RMK A01 T10041009  RH  097%=      5-min Rain = 0
KOD1 080842Z 01011KT M00/M01 A3033 RMK A01 T10041009  RH  097%=      5-min Rain = 0
KOD1 080843Z 01013KT M00/M01 A3033 RMK A01 T10041009  RH  096%=      5-min Rain = 0
KOD1 080844Z 01012KT M00/M01 A3033 RMK A01 T10041009  RH  096%=      5-min Rain = 0
KOD1 080845Z 01010KT M00/M01 A3033 RMK A01 T10041009  RH  097%=      5-min Rain = 0
KOD1 080846Z 01010KT M00/M01 A3033 RMK A01 T10041008  RH  097%=      5-min Rain = 0
KOD1 080847Z 01010KT M00/M01 A3033 RMK A01 T10041009  RH  097%=      5-min Rain = 0
KOD1 080848Z 01010KT M00/M01 A3033 RMK A01 T10041009  RH  097%=      5-min Rain = 0
KOD1 080849Z 01011KT M00/M01 A3033 RMK A01 T10041009  RH  097%=      5-min Rain = 0
KOD1 080850Z 01011KT M00/M01 A3033 RMK A01 T10041009  RH  097%=      5-min Rain = 0
KOD1 080851Z 01011KT M00/M01 A3033 RMK A01 T10041009  RH  097%=      5-min Rain = 0
KOD1 080852Z 01011KT M00/M01 A3033 RMK A01 T10041009  RH  097%=      5-min Rain = 0
KOD1 080853Z 01011KT M00/M01 A3032 RMK A01 T10041009  RH  097%=      5-min Rain = 0
KOD1 080854Z 01012KT M00/M01 A3032 RMK A01 T10041009  RH  097%=      5-min Rain = 0
KOD1 080855Z 01010KT M00/M01 A3032 RMK A01 T10041009  RH  097%=      5-min Rain = 0
KOD1 080856Z 01011KT M00/M01 A3032 RMK A01 T10041009  RH  097%=      5-min Rain = 0
KOD1 080857Z 01011KT M00/M01 A3032 RMK A01 T10041009  RH  096%=      5-min Rain = 0
KOD1 080858Z 01012KT M00/M01 A3032 RMK A01 T10041009  RH  096%=      5-min Rain = 0
KOD1 080859Z 01013KT M00/M01 A3032 RMK A01 T10041009  RH  096%=      5-min Rain = 0
KOD1 080900Z 01013KT M00/M01 A3032 RMK A01 T10041010  RH  096%=      5-min Rain = 0
KOD1 080901Z 01013KT M00/M01 A3032 RMK A01 T10041010  RH  096%=      5-min Rain = 0
KOD1 080902Z 01011KT M00/M01 A3032 RMK A01 T10041010  RH  096%=      5-min Rain = 0
KOD1 080903Z 01012KT M00/M01 A3032 RMK A01 T10041009  RH  096%=      5-min Rain = 0
KOD1 080904Z 01012KT M00/M01 A3032 RMK A01 T10041010  RH  096%=      5-min Rain = 0
KOD1 080905Z 01010KT M00/M01 A3032 RMK A01 T10041009  RH  096%=      5-min Rain = 0
KOD1 080906Z 01010KT M00/M01 A3032 RMK A01 T10041009  RH  096%=      5-min Rain = 0
KOD1 080907Z 01011KT M00/M01 A3032 RMK A01 T10041009  RH  096%=      5-min Rain = 0
KOD1 080908Z 00011KT M00/M01 A3032 RMK A01 T10041009  RH  096%=      5-min Rain = 0
KOD1 080909Z 01013KT M00/M01 A3032 RMK A01 T10041010  RH  096%=      5-min Rain = 0
KOD1 080910Z 00011KT M00/M01 A3032 RMK A01 T10041010  RH  096%=      5-min Rain = 0
KOD1 080911Z 01013KT M00/M01 A3032 RMK A01 T10041010  RH  096%=      5-min Rain = 0
KOD1 080912Z 00012KT M00/M01 A3032 RMK A01 T10041010  RH  096%=      5-min Rain = 0
KOD1 080913Z 00011KT M00/M01 A3032 RMK A01 T10041010  RH  096%=      5-min Rain = 0
KOD1 080914Z 01012KT M00/M01 A3032 RMK A01 T10041010  RH  096%=      5-min Rain = 0
KOD1 080915Z 01012KT M00/M01 A3032 RMK A01 T10041010  RH  096%=      5-min Rain = 0
KOD1 080916Z 00010KT M00/M01 A3032 RMK A01 T10041010  RH  096%=      5-min Rain = 0
KOD1 080917Z 00011KT M00/M01 A3032 RMK A01 T10041010  RH  096%=      5-min Rain = 0
KOD1 080918Z 00012KT M00/M01 A3032 RMK A01 T10041010  RH  096%=      5-min Rain = 0
KOD1 080919Z 00013KT M00/M01 A3032 RMK A01 T10041010  RH  096%=      5-min Rain = 0
KOD1 080920Z 00011KT M00/M01 A3032 RMK A01 T10041010  RH  095%=      5-min Rain = 0
KOD1 080921Z 00010KT M00/M01 A3032 RMK A01 T10041010  RH  096%=      5-min Rain = 0
KOD1 080922Z 01011KT M00/M01 A3032 RMK A01 T10041010  RH  095%=      5-min Rain = 0
KOD1 080923Z 01010KT M00/M01 A3032 RMK A01 T10041010  RH  095%=      5-min Rain = 0
KOD1 080924Z 01011KT M00/M01 A3032 RMK A01 T10041010  RH  095%=      5-min Rain = 0
KOD1 080925Z 00011KT M00/M01 A3032 RMK A01 T10041010  RH  095%=      5-min Rain = 0
KOD1 080926Z 00011KT M00/M01 A3032 RMK A01 T10041010  RH  095%=      5-min Rain = 0
KOD1 080927Z 00010KT M00/M01 A3032 RMK A01 T10031010  RH  095%=      5-min Rain = 0
KOD1 080928Z 00011KT M00/M01 A3032 RMK A01 T10031010  RH  096%=      5-min Rain = 0
KOD1 080929Z 00011KT M00/M01 A3032 RMK A01 T10031010  RH  095%=      5-min Rain = 0
KOD1 080930Z 00012KT M00/M01 A3032 RMK A01 T10031010  RH  095%=      5-min Rain = 0
KOD1 080931Z 36010KT M00/M01 A3032 RMK A01 T10031010  RH  095%=      5-min Rain = 0
KOD1 080932Z 36014KT M00/M01 A3032 RMK A01 T10041010  RH  095%=      5-min Rain = 0
KOD1 080933Z 36013KT M00/M01 A3032 RMK A01 T10041011  RH  095%=      5-min Rain = 0
KOD1 080934Z 00013KT M00/M01 A3032 RMK A01 T10041010  RH  095%=      5-min Rain = 0
KOD1 080935Z 36011KT M00/M01 A3032 RMK A01 T10041011  RH  095%=      5-min Rain = 0
KOD1 080936Z 00013KT M00/M01 A3032 RMK A01 T10031010  RH  095%=      5-min Rain = 0
KOD1 080937Z 00011KT M00/M01 A3032 RMK A01 T10041011  RH  095%=      5-min Rain = 0
KOD1 080938Z 00014KT M00/M01 A3032 RMK A01 T10041011  RH  095%=      5-min Rain = 0
KOD1 080939Z 00012KT M00/M01 A3032 RMK A01 T10041011  RH  095%=      5-min Rain = 0
KOD1 080940Z 00011KT M00/M01 A3032 RMK A01 T10041011  RH  095%=      5-min Rain = 0
KOD1 080941Z 36011KT M00/M01 A3032 RMK A01 T10041011  RH  095%=      5-min Rain = 0
KOD1 080942Z 00012KT M00/M01 A3032 RMK A01 T10041011  RH  095%=      5-min Rain = 0
KOD1 080943Z 36013KT M00/M01 A3032 RMK A01 T10041011  RH  095%=      5-min Rain = 0
KOD1 080944Z 00011KT M00/M01 A3032 RMK A01 T10041012  RH  095%=      5-min Rain = 0
KOD1 080945Z 36012KT M00/M01 A3032 RMK A01 T10041012  RH  095%=      5-min Rain = 0
KOD1 080946Z 00012KT M00/M01 A3032 RMK A01 T10041012  RH  095%=      5-min Rain = 0
KOD1 080947Z 00011KT M00/M01 A3032 RMK A01 T10041012  RH  095%=      5-min Rain = 0
KOD1 080948Z 36010KT M00/M01 A3032 RMK A01 T10041011  RH  095%=      5-min Rain = 0
KOD1 080949Z 36010KT M00/M01 A3032 RMK A01 T10041011  RH  095%=      5-min Rain = 0
KOD1 080950Z 36011KT M00/M01 A3032 RMK A01 T10041011  RH  095%=      5-min Rain = 0
KOD1 080951Z 36011KT M00/M01 A3032 RMK A01 T10041011  RH  095%=      5-min Rain = 0
KOD1 080952Z 35010KT M00/M01 A3032 RMK A01 T10041011  RH  095%=      5-min Rain = 0
KOD1 080953Z 36011KT M00/M01 A3032 RMK A01 T10041011  RH  095%=      5-min Rain = 0
KOD1 080954Z 36011KT M00/M01 A3032 RMK A01 T10041011  RH  095%=      5-min Rain = 0
KOD1 080955Z 00011KT M00/M01 A3032 RMK A01 T10041011  RH  095%=      5-min Rain = 0
KOD1 080956Z 35011KT M00/M01 A3032 RMK A01 T10041011  RH  095%=      5-min Rain = 0
KOD1 080957Z 00011KT M00/M01 A3032 RMK A01 T10041011  RH  095%=      5-min Rain = 0
KOD1 080958Z 36012KT M00/M01 A3032 RMK A01 T10041012  RH  095%=      5-min Rain = 0
KOD1 080959Z 00010KT M00/M01 A3032 RMK A01 T10041012  RH  095%=      5-min Rain = 0
KOD1 081000Z 36010KT M00/M01 A3032 RMK A01 T10041012  RH  095%=      5-min Rain = 0
KOD1 081001Z 00013KT M00/M01 A3032 RMK A01 T10041012  RH  094%=      5-min Rain = 0
KOD1 081002Z 00012KT M00/M01 A3032 RMK A01 T10041012  RH  094%=      5-min Rain = 0
KOD1 081003Z 00012KT M00/M01 A3032 RMK A01 T10041013  RH  094%=      5-min Rain = 0
KOD1 081004Z 01010KT M00/M01 A3032 RMK A01 T10041012  RH  094%=      5-min Rain = 0
KOD1 081005Z 00011KT M00/M01 A3031 RMK A01 T10041012  RH  094%=      5-min Rain = 0
KOD1 081006Z 00010KT M00/M01 A3031 RMK A01 T10041012  RH  094%=      5-min Rain = 0
KOD1 081007Z 00010KT M00/M01 A3031 RMK A01 T10041012  RH  094%=      5-min Rain = 0
KOD1 081008Z 00011KT M00/M01 A3031 RMK A01 T10041012  RH  094%=      5-min Rain = 0
KOD1 081009Z 01010KT M00/M01 A3031 RMK A01 T10041012  RH  094%=      5-min Rain = 0
KOD1 081010Z 00010KT M00/M01 A3031 RMK A01 T10031012  RH  094%=      5-min Rain = 0
KOD1 081011Z 01011KT M00/M01 A3031 RMK A01 T10041013  RH  094%=      5-min Rain = 0
KOD1 081012Z 01011KT M00/M01 A3031 RMK A01 T10031013  RH  093%=      5-min Rain = 0
KOD1 081013Z 01011KT M00/M01 A3031 RMK A01 T10031013  RH  093%=      5-min Rain = 0
KOD1 081014Z 01010KT M00/M01 A3031 RMK A01 T10031013  RH  093%=      5-min Rain = 0
KOD1 081015Z 01010KT M00/M01 A3031 RMK A01 T10031013  RH  093%=      5-min Rain = 0
KOD1 081016Z 01011KT M00/M01 A3031 RMK A01 T10031013  RH  093%=      5-min Rain = 0
KOD1 081017Z 01012KT M00/M01 A3031 RMK A01 T10031014  RH  093%=      5-min Rain = 0
KOD1 081018Z 01010KT M00/M01 A3031 RMK A01 T10031014  RH  092%=      5-min Rain = 0
KOD1 081019Z 01010KT M00/M01 A3031 RMK A01 T10031014  RH  092%=      5-min Rain = 0
KOD1 081020Z 01011KT M00/M01 A3031 RMK A01 T10031014  RH  092%=      5-min Rain = 0
KOD1 081021Z 01011KT M00/M01 A3031 RMK A01 T10031014  RH  092%=      5-min Rain = 0
KOD1 081022Z 01011KT M00/M02 A3031 RMK A01 T10031015  RH  092%=      5-min Rain = 0
KOD1 081023Z 01011KT M00/M02 A3031 RMK A01 T10031015  RH  092%=      5-min Rain = 0
KOD1 081024Z 01012KT M00/M02 A3031 RMK A01 T10031015  RH  091%=      5-min Rain = 0
KOD1 081025Z 01012KT M00/M02 A3031 RMK A01 T10031015  RH  091%=      5-min Rain = 0
KOD1 081026Z 00012KT M00/M02 A3031 RMK A01 T10031016  RH  091%=      5-min Rain = 0
KOD1 081027Z 01012KT M00/M02 A3031 RMK A01 T10031017  RH  091%=      5-min Rain = 0
KOD1 081028Z 01010KT M00/M02 A3031 RMK A01 T10031017  RH  091%=      5-min Rain = 0
KOD1 081029Z 01011KT M00/M02 A3031 RMK A01 T10031016  RH  091%=      5-min Rain = 0
KOD1 081030Z 01011KT M00/M02 A3031 RMK A01 T10031017  RH  091%=      5-min Rain = 0
KOD1 081031Z 01010KT M00/M02 A3031 RMK A01 T10031017  RH  091%=      5-min Rain = 0
KOD1 081032Z 01011KT M00/M02 A3031 RMK A01 T10031017  RH  091%=      5-min Rain = 0
KOD1 081033Z 01011KT M00/M02 A3031 RMK A01 T10031017  RH  091%=      5-min Rain = 0
KOD1 081034Z 01009KT M00/M02 A3031 RMK A01 T10031016  RH  091%=      5-min Rain = 0
KOD1 081035Z 01011KT M00/M02 A3031 RMK A01 T10031016  RH  091%=      5-min Rain = 0
KOD1 081036Z 01011KT M00/M02 A3031 RMK A01 T10031016  RH  091%=      5-min Rain = 0
KOD1 081037Z 01010KT M00/M02 A3031 RMK A01 T10031017  RH  091%=      5-min Rain = 0
KOD1 081038Z 01011KT M00/M02 A3031 RMK A01 T10031016  RH  091%=      5-min Rain = 0
KOD1 081039Z 01010KT M00/M02 A3031 RMK A01 T10031017  RH  091%=      5-min Rain = 0
KOD1 081040Z 01012KT M00/M02 A3031 RMK A01 T10031017  RH  091%=      5-min Rain = 0
KOD1 081041Z 01012KT M00/M02 A3031 RMK A01 T10041017  RH  090%=      5-min Rain = 0
KOD1 081042Z 01011KT M00/M02 A3031 RMK A01 T10041018  RH  090%=      5-min Rain = 0
KOD1 081043Z 02010KT M00/M02 A3031 RMK A01 T10031018  RH  090%=      5-min Rain = 0
KOD1 081044Z 01010KT M00/M02 A3031 RMK A01 T10031017  RH  090%=      5-min Rain = 0
KOD1 081045Z 01011KT M00/M02 A3031 RMK A01 T10041017  RH  091%=      5-min Rain = 0
KOD1 081046Z 01010KT M00/M02 A3031 RMK A01 T10041017  RH  090%=      5-min Rain = 0
KOD1 081047Z 01010KT M00/M02 A3031 RMK A01 T10041017  RH  090%=      5-min Rain = 0
KOD1 081048Z 01011KT M00/M02 A3031 RMK A01 T10041017  RH  091%=      5-min Rain = 0
KOD1 081049Z 01010KT M00/M02 A3031 RMK A01 T10041017  RH  091%=      5-min Rain = 0
KOD1 081050Z 01011KT M00/M02 A3031 RMK A01 T10041017  RH  091%=      5-min Rain = 0
KOD1 081051Z 01010KT M00/M02 A3031 RMK A01 T10041017  RH  091%=      5-min Rain = 0
KOD1 081052Z 01007KT M00/M02 A3031 RMK A01 T10031016  RH  091%=      5-min Rain = 0
KOD1 081053Z 01009KT M00/M02 A3031 RMK A01 T10031015  RH  092%=      5-min Rain = 0
KOD1 081054Z 01011KT M00/M02 A3031 RMK A01 T10041016  RH  091%=      5-min Rain = 0
KOD1 081055Z 01010KT M00/M02 A3031 RMK A01 T10041016  RH  092%=      5-min Rain = 0
KOD1 081056Z 01008KT M00/M02 A3031 RMK A01 T10041015  RH  092%=      5-min Rain = 0
KOD1 081057Z 01011KT M00/M02 A3031 RMK A01 T10041015  RH  092%=      5-min Rain = 0
KOD1 081058Z 01010KT M00/M02 A3031 RMK A01 T10041016  RH  092%=      5-min Rain = 0
KOD1 081059Z 01009KT M00/M02 A3031 RMK A01 T10041015  RH  092%=      5-min Rain = 0
KOD1 081100Z 01010KT M00/M02 A3031 RMK A01 T10041015  RH  092%=      5-min Rain = 0
KOD1 081101Z 01009KT M00/M02 A3031 RMK A01 T10041015  RH  092%=      5-min Rain = 0
KOD1 081102Z 01009KT M00/M02 A3031 RMK A01 T10041015  RH  092%=      5-min Rain = 0
KOD1 081103Z 01011KT M00/M02 A3031 RMK A01 T10041015  RH  092%=      5-min Rain = 0
KOD1 081104Z 01010KT M00/M02 A3031 RMK A01 T10041015  RH  092%=      5-min Rain = 0
KOD1 081105Z 01010KT M00/M02 A3031 RMK A01 T10041016  RH  092%=      5-min Rain = 0
KOD1 081106Z 01010KT M00/M02 A3031 RMK A01 T10041015  RH  092%=      5-min Rain = 0
KOD1 081107Z 01009KT M00/M02 A3031 RMK A01 T10041015  RH  092%=      5-min Rain = 0
KOD1 081108Z 01010KT M00/M02 A3031 RMK A01 T10041015  RH  092%=      5-min Rain = 0
KOD1 081109Z 01010KT M00/M02 A3031 RMK A01 T10041015  RH  092%=      5-min Rain = 0
KOD1 081110Z 01010KT M00/M02 A3031 RMK A01 T10041015  RH  092%=      5-min Rain = 0
KOD1 081111Z 01011KT M00/M02 A3031 RMK A01 T10041015  RH  092%=      5-min Rain = 0
KOD1 081112Z 01010KT M00/M02 A3031 RMK A01 T10041015  RH  092%=      5-min Rain = 0
KOD1 081113Z 01009KT M00/M02 A3031 RMK A01 T10041015  RH  092%=      5-min Rain = 0
KOD1 081114Z 01010KT M00/M02 A303 RMK A01 T10041015  RH  092%=      5-min Rain = 0
KOD1 081115Z 01010KT M00/M02 A303 RMK A01 T10041015  RH  092%=      5-min Rain = 0
KOD1 081116Z 01010KT M00/M02 A303 RMK A01 T10041015  RH  092%=      5-min Rain = 0
KOD1 081117Z 01011KT M00/M02 A303 RMK A01 T10041015  RH  092%=      5-min Rain = 0
KOD1 081118Z 00011KT M00/M02 A303 RMK A01 T10041015  RH  092%=      5-min Rain = 0
KOD1 081119Z 01012KT M00/M02 A303 RMK A01 T10041015  RH  092%=      5-min Rain = 0
KOD1 081120Z 01013KT M00/M02 A303 RMK A01 T10041016  RH  092%=      5-min Rain = 0
KOD1 081121Z 01013KT M01/M02 A3031 RMK A01 T10051016  RH  092%=      5-min Rain = 0
KOD1 081122Z 00013KT M01/M02 A3031 RMK A01 T10051017  RH  091%=      5-min Rain = 0
KOD1 081123Z 01011KT M01/M02 A3031 RMK A01 T10051017  RH  091%=      5-min Rain = 0
KOD1 081124Z 01010KT M00/M02 A3031 RMK A01 T10041017  RH  092%=      5-min Rain = 0
KOD1 081125Z 00010KT M00/M02 A3031 RMK A01 T10041017  RH  092%=      5-min Rain = 0
KOD1 081126Z 00010KT M01/M02 A3031 RMK A01 T10051016  RH  092%=      5-min Rain = 0
KOD1 081127Z 01011KT M01/M02 A3031 RMK A01 T10051016  RH  092%=      5-min Rain = 0
KOD1 081128Z 01013KT M01/M02 A3031 RMK A01 T10051017  RH  092%=      5-min Rain = 0
KOD1 081129Z 01012KT M01/M02 A3031 RMK A01 T10051017  RH  092%=      5-min Rain = 0
KOD1 081130Z 01012KT M01/M02 A3031 RMK A01 T10051017  RH  092%=      5-min Rain = 0
KOD1 081131Z 01010KT M01/M02 A3031 RMK A01 T10051016  RH  092%=      5-min Rain = 0
KOD1 081132Z 01013KT M01/M02 A3031 RMK A01 T10051017  RH  092%=      5-min Rain = 0
KOD1 081133Z 00013KT M01/M02 A3031 RMK A01 T10051018  RH  091%=      5-min Rain = 0
KOD1 081134Z 01013KT M01/M02 A3031 RMK A01 T10051018  RH  091%=      5-min Rain = 0
KOD1 081135Z 00012KT M01/M02 A3031 RMK A01 T10051018  RH  091%=      5-min Rain = 0
KOD1 081136Z 01010KT M01/M02 A3031 RMK A01 T10051017  RH  092%=      5-min Rain = 0
KOD1 081137Z 01010KT M01/M02 A3031 RMK A01 T10051017  RH  092%=      5-min Rain = 0
KOD1 081138Z 01012KT M01/M02 A3031 RMK A01 T10051017  RH  092%=      5-min Rain = 0
KOD1 081139Z 01011KT M01/M02 A3031 RMK A01 T10061018  RH  091%=      5-min Rain = 0
KOD1 081140Z 01011KT M01/M02 A3031 RMK A01 T10061018  RH  092%=      5-min Rain = 0
KOD1 081141Z 01011KT M01/M02 A3031 RMK A01 T10061018  RH  092%=      5-min Rain = 0
KOD1 081142Z 01010KT M01/M02 A3031 RMK A01 T10061018  RH  092%=      5-min Rain = 0
KOD1 081143Z 01011KT M01/M02 A3031 RMK A01 T10061017  RH  092%=      5-min Rain = 0
KOD1 081144Z 01010KT M01/M02 A3031 RMK A01 T10061017  RH  092%=      5-min Rain = 0
KOD1 081145Z 01013KT M01/M02 A3031 RMK A01 T10061018  RH  092%=      5-min Rain = 0
KOD1 081146Z 01014KT M01/M02 A3031 RMK A01 T10061018  RH  091%=      5-min Rain = 0
KOD1 081147Z 01014KT M01/M02 A3031 RMK A01 T10061019  RH  091%=      5-min Rain = 0
KOD1 081148Z 01013KT M01/M02 A3031 RMK A01 T10061019  RH  091%=      5-min Rain = 0
KOD1 081149Z 01013KT M01/M02 A3031 RMK A01 T10061020  RH  091%=      5-min Rain = 0
KOD1 081150Z 01012KT M01/M02 A3031 RMK A01 T10061019  RH  091%=      5-min Rain = 0
KOD1 081151Z 01011KT M01/M02 A3031 RMK A01 T10061019  RH  091%=      5-min Rain = 0
KOD1 081152Z 01011KT M01/M02 A3031 RMK A01 T10061019  RH  091%=      5-min Rain = 0
KOD1 081153Z 01011KT M01/M02 A3031 RMK A01 T10061019  RH  091%=      5-min Rain = 0
KOD1 081154Z 01010KT M01/M02 A3031 RMK A01 T10061019  RH  091%=      5-min Rain = 0
KOD1 081155Z 00010KT M01/M02 A3031 RMK A01 T10061018  RH  092%=      5-min Rain = 0
KOD1 081156Z 01011KT M01/M02 A3031 RMK A01 T10061018  RH  091%=      5-min Rain = 0
KOD1 081157Z 01011KT M01/M02 A3031 RMK A01 T10061018  RH  091%=      5-min Rain = 0
KOD1 081158Z 01010KT M01/M02 A3031 RMK A01 T10061018  RH  092%=      5-min Rain = 0
KOD1 081159Z 01012KT M01/M02 A3031 RMK A01 T10061018  RH  092%=      5-min Rain = 0
KOD1 081200Z 01011KT M01/M02 A3031 RMK A01 T10061018  RH  092%=      5-min Rain = 0
KOD1 081201Z 01013KT M01/M02 A3032 RMK A01 T10061018  RH  091%=      5-min Rain = 0
KOD1 081202Z 01011KT M01/M02 A3032 RMK A01 T10061019  RH  091%=      5-min Rain = 0
KOD1 081203Z 01011KT M01/M02 A3032 RMK A01 T10061018  RH  091%=      5-min Rain = 0
KOD1 081204Z 00013KT M01/M02 A3032 RMK A01 T10061019  RH  091%=      5-min Rain = 0
KOD1 081205Z 01012KT M01/M02 A3032 RMK A01 T10061019  RH  091%=      5-min Rain = 0
KOD1 081206Z 00012KT M01/M02 A3032 RMK A01 T10051019  RH  091%=      5-min Rain = 0
KOD1 081207Z 00013KT M01/M02 A3032 RMK A01 T10051019  RH  091%=      5-min Rain = 0
KOD1 081208Z 01011KT M01/M02 A3032 RMK A01 T10051018  RH  091%=      5-min Rain = 0
KOD1 081209Z 01011KT M01/M02 A3031 RMK A01 T10051018  RH  091%=      5-min Rain = 0
KOD1 081210Z 01012KT M01/M02 A3031 RMK A01 T10051018  RH  091%=      5-min Rain = 0
KOD1 081211Z 00013KT M01/M02 A3031 RMK A01 T10051019  RH  091%=      5-min Rain = 0
KOD1 081212Z 00011KT M01/M02 A3031 RMK A01 T10051018  RH  091%=      5-min Rain = 0
KOD1 081213Z 00012KT M01/M02 A3031 RMK A01 T10051018  RH  091%=      5-min Rain = 0
KOD1 081214Z 01013KT M01/M02 A3031 RMK A01 T10051018  RH  091%=      5-min Rain = 0
KOD1 081215Z 00013KT M01/M02 A3031 RMK A01 T10051018  RH  091%=      5-min Rain = 0
KOD1 081216Z 00013KT M01/M02 A3031 RMK A01 T10051018  RH  091%=      5-min Rain = 0
KOD1 081217Z 01011KT M01/M02 A3031 RMK A01 T10051018  RH  091%=      5-min Rain = 0
KOD1 081218Z 01014KT M01/M02 A3031 RMK A01 T10051018  RH  091%=      5-min Rain = 0
KOD1 081219Z 01013KT M01/M02 A3031 RMK A01 T10051019  RH  090%=      5-min Rain = 0
KOD1 081220Z 01014KT M01/M02 A3031 RMK A01 T10051019  RH  090%=      5-min Rain = 0
KOD1 081221Z 00015KT M01/M02 A3031 RMK A01 T10051019  RH  090%=      5-min Rain = 0
KOD1 081222Z 00013KT M01/M02 A3031 RMK A01 T10051019  RH  090%=      5-min Rain = 0
KOD1 081223Z 01014KT M01/M02 A3031 RMK A01 T10051019  RH  090%=      5-min Rain = 0
KOD1 081224Z 01011KT M01/M02 A3031 RMK A01 T10051019  RH  090%=      5-min Rain = 0
KOD1 081225Z 01010KT M00/M02 A3031 RMK A01 T10041018  RH  091%=      5-min Rain = 0
KOD1 081226Z 00011KT M01/M02 A3031 RMK A01 T10051018  RH  091%=      5-min Rain = 0
KOD1 081227Z 36012KT M01/M02 A3031 RMK A01 T10051018  RH  091%=      5-min Rain = 0
KOD1 081228Z 36012KT M01/M02 A3032 RMK A01 T10051018  RH  091%=      5-min Rain = 0
KOD1 081229Z 36011KT M01/M02 A3032 RMK A01 T10051018  RH  091%=      5-min Rain = 0
KOD1 081230Z 35010KT M01/M02 A3032 RMK A01 T10051018  RH  091%=      5-min Rain = 0
KOD1 081231Z 35010KT M01/M02 A3032 RMK A01 T10051018  RH  091%=      5-min Rain = 0
KOD1 081232Z 36010KT M01/M02 A3032 RMK A01 T10051017  RH  092%=      5-min Rain = 0
KOD1 081233Z 35010KT M01/M02 A3032 RMK A01 T10051017  RH  092%=      5-min Rain = 0
KOD1 081234Z 35009KT M01/M02 A3032 RMK A01 T10051017  RH  092%=      5-min Rain = 0
KOD1 081235Z 35011KT M01/M02 A3032 RMK A01 T10051016  RH  092%=      5-min Rain = 0
KOD1 081236Z 34009KT M01/M02 A3032 RMK A01 T10051016  RH  092%=      5-min Rain = 0
KOD1 081237Z 35010KT M01/M02 A3032 RMK A01 T10051016  RH  092%=      5-min Rain = 0
KOD1 081238Z 35011KT M01/M02 A3032 RMK A01 T10051016  RH  092%=      5-min Rain = 0
KOD1 081239Z 35011KT M01/M02 A3032 RMK A01 T10051017  RH  092%=      5-min Rain = 0
KOD1 081240Z 35010KT M01/M02 A3032 RMK A01 T10051016  RH  092%=      5-min Rain = 0
KOD1 081241Z 35012KT M01/M02 A3032 RMK A01 T10051017  RH  092%=      5-min Rain = 0
KOD1 081242Z 35010KT M01/M02 A3032 RMK A01 T10051017  RH  092%=      5-min Rain = 0
KOD1 081243Z 35010KT M01/M02 A3032 RMK A01 T10051017  RH  092%=      5-min Rain = 0
KOD1 081244Z 35011KT M01/M02 A3032 RMK A01 T10051016  RH  092%=      5-min Rain = 0
KOD1 081245Z 36012KT M01/M02 A3032 RMK A01 T10051017  RH  091%=      5-min Rain = 0
KOD1 081246Z 36011KT M01/M02 A3032 RMK A01 T10051018  RH  091%=      5-min Rain = 0
KOD1 081247Z 36013KT M01/M02 A3032 RMK A01 T10051018  RH  091%=      5-min Rain = 0
KOD1 081248Z 00014KT M01/M02 A3032 RMK A01 T10051019  RH  090%=      5-min Rain = 0
KOD1 081249Z 00012KT M01/M02 A3032 RMK A01 T10051020  RH  090%=      5-min Rain = 0
KOD1 081250Z 00011KT M01/M02 A3032 RMK A01 T10051019  RH  090%=      5-min Rain = 0
KOD1 081251Z 36013KT M01/M02 A3032 RMK A01 T10051019  RH  090%=      5-min Rain = 0
KOD1 081252Z 36013KT M01/M02 A3032 RMK A01 T10051020  RH  090%=      5-min Rain = 0
KOD1 081253Z 36012KT M01/M02 A3032 RMK A01 T10051020  RH  090%=      5-min Rain = 0
KOD1 081254Z 36013KT M01/M02 A3032 RMK A01 T10051020  RH  089%=      5-min Rain = 0
KOD1 081255Z 36010KT M01/M02 A3033 RMK A01 T10051019  RH  090%=      5-min Rain = 0
KOD1 081256Z 36011KT M00/M02 A3033 RMK A01 T10041019  RH  090%=      5-min Rain = 0
KOD1 081257Z 36010KT M01/M02 A3033 RMK A01 T10051019  RH  090%=      5-min Rain = 0
KOD1 081258Z 36012KT M01/M02 A3033 RMK A01 T10051019  RH  090%=      5-min Rain = 0
KOD1 081259Z 36011KT M01/M02 A3033 RMK A01 T10051019  RH  090%=      5-min Rain = 0
KOD1 081300Z 36011KT M00/M02 A3033 RMK A01 T10041019  RH  090%=      5-min Rain = 0
KOD1 081301Z 35012KT M00/M02 A3033 RMK A01 T10041020  RH  090%=      5-min Rain = 0
KOD1 081302Z 35011KT M00/M02 A3033 RMK A01 T10041019  RH  090%=      5-min Rain = 0
KOD1 081303Z 36010KT M00/M02 A3033 RMK A01 T10041020  RH  089%=      5-min Rain = 0
KOD1 081304Z 36010KT M00/M02 A3033 RMK A01 T10041020  RH  089%=      5-min Rain = 0
KOD1 081305Z 36010KT M00/M02 A3033 RMK A01 T10041020  RH  089%=      5-min Rain = 0
KOD1 081306Z 00012KT M00/M02 A3033 RMK A01 T10041020  RH  089%=      5-min Rain = 0
KOD1 081307Z 36012KT M00/M02 A3033 RMK A01 T10041021  RH  088%=      5-min Rain = 0
KOD1 081308Z 36012KT M00/M02 A3033 RMK A01 T10041021  RH  088%=      5-min Rain = 0
KOD1 081309Z 36011KT M00/M02 A3033 RMK A01 T10041021  RH  088%=      5-min Rain = 0
KOD1 081310Z 00009KT M00/M02 A3033 RMK A01 T10041020  RH  089%=      5-min Rain = 0
KOD1 081311Z 00011KT M00/M02 A3033 RMK A01 T10041020  RH  089%=      5-min Rain = 0
KOD1 081312Z 00010KT M00/M02 A3033 RMK A01 T10041021  RH  088%=      5-min Rain = 0
KOD1 081313Z 00010KT M00/M02 A3033 RMK A01 T10041020  RH  089%=      5-min Rain = 0
KOD1 081314Z 00010KT M00/M02 A3033 RMK A01 T10041020  RH  089%=      5-min Rain = 0
KOD1 081315Z 36009KT M00/M02 A3033 RMK A01 T10041020  RH  089%=      5-min Rain = 0
KOD1 081316Z 36008KT M00/M02 A3033 RMK A01 T10031019  RH  089%=      5-min Rain = 0
KOD1 081317Z 00009KT M00/M02 A3033 RMK A01 T10031019  RH  089%=      5-min Rain = 0
KOD1 081318Z 36009KT M00/M02 A3033 RMK A01 T10041019  RH  090%=      5-min Rain = 0
KOD1 081319Z 01010KT M00/M02 A3033 RMK A01 T10041019  RH  089%=      5-min Rain = 0
KOD1 081320Z 36010KT M00/M02 A3033 RMK A01 T10041019  RH  089%=      5-min Rain = 0
KOD1 081321Z 36010KT M00/M02 A3033 RMK A01 T10031019  RH  089%=      5-min Rain = 0
KOD1 081322Z 36011KT M00/M02 A3033 RMK A01 T10031019  RH  089%=      5-min Rain = 0
KOD1 081323Z 36010KT M00/M02 A3033 RMK A01 T10031019  RH  089%=      5-min Rain = 0
KOD1 081324Z 36010KT M00/M02 A3033 RMK A01 T10031019  RH  089%=      5-min Rain = 0
KOD1 081325Z 36010KT M00/M02 A3033 RMK A01 T10031019  RH  089%=      5-min Rain = 0
KOD1 081326Z 36010KT M00/M02 A3033 RMK A01 T10031019  RH  089%=      5-min Rain = 0
KOD1 081327Z 36010KT M00/M02 A3033 RMK A01 T10031019  RH  089%=      5-min Rain = 0
KOD1 081328Z 00009KT M00/M02 A3033 RMK A01 T10031019  RH  089%=      5-min Rain = 0
KOD1 081329Z 36010KT M00/M02 A3033 RMK A01 T10031020  RH  089%=      5-min Rain = 0
KOD1 081330Z 36010KT M00/M02 A3033 RMK A01 T10031020  RH  088%=      5-min Rain = 0
KOD1 081331Z 36010KT M00/M02 A3034 RMK A01 T10031020  RH  088%=      5-min Rain = 0
KOD1 081332Z 36010KT M00/M02 A3034 RMK A01 T10031020  RH  088%=      5-min Rain = 0
KOD1 081333Z 00010KT M00/M02 A3034 RMK A01 T10031020  RH  088%=      5-min Rain = 0
KOD1 081334Z 00009KT M00/M02 A3034 RMK A01 T10031020  RH  088%=      5-min Rain = 0
KOD1 081335Z 00009KT M00/M02 A3034 RMK A01 T10031020  RH  088%=      5-min Rain = 0
KOD1 081336Z 00009KT M00/M02 A3034 RMK A01 T10031020  RH  088%=      5-min Rain = 0
KOD1 081337Z 00009KT M00/M02 A3034 RMK A01 T10031020  RH  088%=      5-min Rain = 0
KOD1 081338Z 00009KT M00/M02 A3034 RMK A01 T10031020  RH  088%=      5-min Rain = 0
KOD1 081339Z 36007KT M00/M02 A3034 RMK A01 T10031019  RH  089%=      5-min Rain = 0
KOD1 081340Z 00008KT M00/M02 A3034 RMK A01 T10031019  RH  089%=      5-min Rain = 0
KOD1 081341Z 36007KT M00/M02 A3034 RMK A01 T10031018  RH  089%=      5-min Rain = 0
KOD1 081342Z 35007KT M00/M02 A3034 RMK A01 T10031018  RH  090%=      5-min Rain = 0
KOD1 081343Z 35005KT M00/M02 A3034 RMK A01 T10031017  RH  090%=      5-min Rain = 0
KOD1 081344Z 35006KT M00/M02 A3034 RMK A01 T10031017  RH  090%=      5-min Rain = 0
KOD1 081345Z 35006KT M00/M02 A3034 RMK A01 T10031016  RH  091%=      5-min Rain = 0
KOD1 081346Z 36005KT M00/M02 A3034 RMK A01 T10031016  RH  091%=      5-min Rain = 0
KOD1 081347Z 35006KT M00/M02 A3034 RMK A01 T10031016  RH  091%=      5-min Rain = 0
KOD1 081348Z 35006KT M00/M02 A3034 RMK A01 T10031015  RH  091%=      5-min Rain = 0
KOD1 081349Z 35006KT M00/M02 A3034 RMK A01 T10031015  RH  092%=      5-min Rain = 0
KOD1 081350Z 35006KT M00/M02 A3034 RMK A01 T10031015  RH  092%=      5-min Rain = 0
KOD1 081351Z 35006KT M00/M02 A3034 RMK A01 T10031015  RH  092%=      5-min Rain = 0
KOD1 081352Z 35007KT M00/M01 A3034 RMK A01 T10031014  RH  092%=      5-min Rain = 0
KOD1 081353Z 35007KT M00/M01 A3034 RMK A01 T10031014  RH  092%=      5-min Rain = 0
KOD1 081354Z 36007KT M00/M01 A3034 RMK A01 T10031014  RH  092%=      5-min Rain = 0
KOD1 081355Z 35007KT M00/M01 A3034 RMK A01 T10031014  RH  092%=      5-min Rain = 0
KOD1 081356Z 36007KT M00/M01 A3034 RMK A01 T10031014  RH  092%=      5-min Rain = 0
KOD1 081357Z 36008KT M00/M01 A3034 RMK A01 T10031014  RH  092%=      5-min Rain = 0
KOD1 081358Z 36008KT M00/M01 A3034 RMK A01 T10031014  RH  092%=      5-min Rain = 0
KOD1 081359Z 36007KT M00/M01 A3034 RMK A01 T10031014  RH  092%=      5-min Rain = 0
KOD1 081400Z 35008KT M00/M01 A3034 RMK A01 T10031014  RH  092%=      5-min Rain = 0
KOD1 081401Z 35008KT M00/M01 A3034 RMK A01 T10031014  RH  092%=      5-min Rain = 0
KOD1 081402Z 35007KT M00/M01 A3034 RMK A01 T10031014  RH  092%=      5-min Rain = 0
KOD1 081403Z 35007KT M00/M01 A3034 RMK A01 T10031014  RH  092%=      5-min Rain = 0
KOD1 081404Z 35008KT M00/M01 A3035 RMK A01 T10031013  RH  093%=      5-min Rain = 0
KOD1 081405Z 35008KT M00/M01 A3035 RMK A01 T10031014  RH  092%=      5-min Rain = 0
KOD1 081406Z 36007KT M00/M01 A3035 RMK A01 T10031014  RH  093%=      5-min Rain = 0
KOD1 081407Z 35008KT M00/M01 A3035 RMK A01 T10031014  RH  092%=      5-min Rain = 0
KOD1 081408Z 35008KT M00/M02 A3035 RMK A01 T10031015  RH  092%=      5-min Rain = 0
KOD1 081409Z 36008KT M00/M02 A3035 RMK A01 T10031015  RH  092%=      5-min Rain = 0
KOD1 081410Z 35009KT M00/M02 A3035 RMK A01 T10031015  RH  092%=      5-min Rain = 0
KOD1 081411Z 35010KT M00/M02 A3035 RMK A01 T10041016  RH  091%=      5-min Rain = 0
KOD1 081412Z 35010KT M00/M02 A3035 RMK A01 T10041017  RH  091%=      5-min Rain = 0
KOD1 081413Z 35011KT M00/M02 A3035 RMK A01 T10041018  RH  090%=      5-min Rain = 0
KOD1 081414Z 36009KT M00/M02 A3035 RMK A01 T10041018  RH  090%=      5-min Rain = 0
KOD1 081415Z 36011KT M00/M02 A3035 RMK A01 T10041018  RH  090%=      5-min Rain = 0
KOD1 081416Z 36009KT M00/M02 A3035 RMK A01 T10041019  RH  090%=      5-min Rain = 0
KOD1 081417Z 36010KT M00/M02 A3035 RMK A01 T10041018  RH  090%=      5-min Rain = 0
KOD1 081418Z 35010KT M00/M02 A3035 RMK A01 T10041019  RH  090%=      5-min Rain = 0
KOD1 081419Z 36011KT M00/M02 A3035 RMK A01 T10041019  RH  090%=      5-min Rain = 0
KOD1 081420Z 00010KT M00/M02 A3035 RMK A01 T10041019  RH  090%=      5-min Rain = 0
KOD1 081421Z 36010KT M00/M02 A3035 RMK A01 T10041019  RH  090%=      5-min Rain = 0
KOD1 081422Z 36010KT M00/M02 A3035 RMK A01 T10041019  RH  090%=      5-min Rain = 0
KOD1 081423Z 36010KT M00/M02 A3035 RMK A01 T10041019  RH  090%=      5-min Rain = 0
KOD1 081424Z 36009KT M00/M02 A3035 RMK A01 T10041019  RH  090%=      5-min Rain = 0
KOD1 081425Z 35008KT M00/M02 A3035 RMK A01 T10041018  RH  091%=      5-min Rain = 0
KOD1 081426Z 35008KT M00/M02 A3035 RMK A01 T10041017  RH  091%=      5-min Rain = 0
KOD1 081427Z 35008KT M00/M02 A3035 RMK A01 T10041017  RH  091%=      5-min Rain = 0
KOD1 081428Z 35008KT M00/M02 A3035 RMK A01 T10041016  RH  092%=      5-min Rain = 0
KOD1 081429Z 36008KT M00/M02 A3035 RMK A01 T10041016  RH  092%=      5-min Rain = 0
KOD1 081430Z 35008KT M00/M02 A3035 RMK A01 T10041016  RH  092%=      5-min Rain = 0
KOD1 081431Z 35009KT M01/M02 A3035 RMK A01 T10051016  RH  092%=      5-min Rain = 0
KOD1 081432Z 35008KT M01/M02 A3035 RMK A01 T10051016  RH  092%=      5-min Rain = 0
KOD1 081433Z 35008KT M01/M02 A3035 RMK A01 T10051016  RH  092%=      5-min Rain = 0
KOD1 081434Z 35009KT M01/M02 A3035 RMK A01 T10051016  RH  092%=      5-min Rain = 0
KOD1 081435Z 35008KT M01/M02 A3035 RMK A01 T10051016  RH  093%=      5-min Rain = 0
KOD1 081436Z 35007KT M01/M02 A3035 RMK A01 T10051016  RH  093%=      5-min Rain = 0
KOD1 081437Z 36009KT M01/M02 A3035 RMK A01 T10051016  RH  093%=      5-min Rain = 0
KOD1 081438Z 36008KT M01/M02 A3035 RMK A01 T10061016  RH  093%=      5-min Rain = 0
KOD1 081439Z 36008KT M01/M02 A3035 RMK A01 T10051015  RH  093%=      5-min Rain = 0
KOD1 081440Z 36008KT M01/M02 A3035 RMK A01 T10061015  RH  093%=      5-min Rain = 0
KOD1 081441Z 36007KT M01/M02 A3035 RMK A01 T10061015  RH  093%=      5-min Rain = 0
KOD1 081442Z 00008KT M01/M02 A3035 RMK A01 T10061015  RH  093%=      5-min Rain = 0
KOD1 081443Z 36008KT M01/M02 A3035 RMK A01 T10061015  RH  093%=      5-min Rain = 0
KOD1 081444Z 36008KT M01/M02 A3035 RMK A01 T10061015  RH  093%=      5-min Rain = 0
KOD1 081445Z 36008KT M01/M02 A3035 RMK A01 T10061015  RH  094%=      5-min Rain = 0
KOD1 081446Z 36008KT M01/M02 A3035 RMK A01 T10061015  RH  094%=      5-min Rain = 0
KOD1 081447Z 36009KT M01/M02 A3035 RMK A01 T10061015  RH  094%=      5-min Rain = 0
KOD1 081448Z 36009KT M01/M02 A3035 RMK A01 T10061015  RH  094%=      5-min Rain = 0
KOD1 081449Z 36009KT M01/M02 A3035 RMK A01 T10061015  RH  094%=      5-min Rain = 0
KOD1 081450Z 36008KT M01/M02 A3035 RMK A01 T10061015  RH  094%=      5-min Rain = 0
KOD1 081451Z 00008KT M01/M02 A3035 RMK A01 T10061015  RH  094%=      5-min Rain = 0
KOD1 081452Z 35007KT M01/M01 A3035 RMK A01 T10061014  RH  094%=      5-min Rain = 0
KOD1 081453Z 35007KT M01/M01 A3035 RMK A01 T10061014  RH  094%=      5-min Rain = 0
KOD1 081454Z 36007KT M01/M01 A3035 RMK A01 T10061014  RH  094%=      5-min Rain = 0
KOD1 081455Z 36007KT M01/M01 A3035 RMK A01 T10061014  RH  094%=      5-min Rain = 0
KOD1 081456Z 36008KT M01/M01 A3035 RMK A01 T10061014  RH  094%=      5-min Rain = 0
KOD1 081457Z 36007KT M01/M01 A3035 RMK A01 T10061013  RH  094%=      5-min Rain = 0
KOD1 081458Z 36007KT M01/M01 A3035 RMK A01 T10061013  RH  095%=      5-min Rain = 0
KOD1 081459Z 01008KT M01/M01 A3035 RMK A01 T10051013  RH  095%=      5-min Rain = 0
KOD1 081500Z 00008KT M01/M01 A3035 RMK A01 T10061014  RH  094%=      5-min Rain = 0
KOD1 081501Z 00007KT M01/M01 A3035 RMK A01 T10061014  RH  094%=      5-min Rain = 0
KOD1 081502Z 00008KT M01/M01 A3035 RMK A01 T10051013  RH  095%=      5-min Rain = 0
KOD1 081503Z 00007KT M01/M01 A3035 RMK A01 T10051013  RH  095%=      5-min Rain = 0
KOD1 081504Z 36008KT M01/M01 A3035 RMK A01 T10051013  RH  095%=      5-min Rain = 0
KOD1 081505Z 00007KT M01/M01 A3035 RMK A01 T10051013  RH  095%=      5-min Rain = 0
KOD1 081506Z 00008KT M01/M01 A3035 RMK A01 T10051013  RH  095%=      5-min Rain = 0
KOD1 081507Z 00009KT M01/M01 A3035 RMK A01 T10051013  RH  095%=      5-min Rain = 0
KOD1 081508Z 00009KT M01/M01 A3035 RMK A01 T10051013  RH  095%=      5-min Rain = 0
KOD1 081509Z 01011KT M01/M01 A3035 RMK A01 T10051014  RH  094%=      5-min Rain = 0
KOD1 081510Z 01010KT M01/M01 A3035 RMK A01 T10051014  RH  094%=      5-min Rain = 0
KOD1 081511Z 01011KT M01/M02 A3035 RMK A01 T10051015  RH  094%=      5-min Rain = 0
KOD1 081512Z 01013KT M01/M02 A3035 RMK A01 T10061017  RH  092%=      5-min Rain = 0
KOD1 081513Z 02011KT M01/M02 A3035 RMK A01 T10061018  RH  092%=      5-min Rain = 0
KOD1 081514Z 02012KT M01/M02 A3035 RMK A01 T10051018  RH  091%=      5-min Rain = 0
KOD1 081515Z 01012KT M01/M02 A3035 RMK A01 T10061021  RH  090%=      5-min Rain = 0
KOD1 081516Z 02014KT M01/M02 A3036 RMK A01 T10061022  RH  089%=      5-min Rain = 0
KOD1 081517Z 02013KT M01/M02 A3036 RMK A01 T10061022  RH  089%=      5-min Rain = 0
KOD1 081518Z 02012KT M01/M02 A3036 RMK A01 T10061023  RH  088%=      5-min Rain = 0
KOD1 081519Z 02011KT M01/M02 A3036 RMK A01 T10051022  RH  088%=      5-min Rain = 0
KOD1 081520Z 01012KT M01/M02 A3036 RMK A01 T10051023  RH  088%=      5-min Rain = 0
KOD1 081521Z 01010KT M01/M02 A3036 RMK A01 T10051022  RH  088%=      5-min Rain = 0
KOD1 081522Z 01011KT M01/M02 A3036 RMK A01 T10051022  RH  088%=      5-min Rain = 0
KOD1 081523Z 01013KT M01/M02 A3036 RMK A01 T10051023  RH  088%=      5-min Rain = 0
KOD1 081524Z 01012KT M00/M02 A3036 RMK A01 T10041023  RH  087%=      5-min Rain = 0
KOD1 081525Z 01011KT M00/M02 A3036 RMK A01 T10041023  RH  087%=      5-min Rain = 0
KOD1 081526Z 01011KT M00/M02 A3036 RMK A01 T10041022  RH  087%=      5-min Rain = 0
KOD1 081527Z 01009KT M00/M02 A3036 RMK A01 T10031021  RH  088%=      5-min Rain = 0
KOD1 081528Z 00010KT M00/M02 A3036 RMK A01 T10031021  RH  088%=      5-min Rain = 0
KOD1 081529Z 00014KT M00/M02 A3036 RMK A01 T10031023  RH  087%=      5-min Rain = 0
KOD1 081530Z 00014KT M00/M03 A3036 RMK A01 T10041026  RH  085%=      5-min Rain = 0
KOD1 081531Z 36013KT M00/M03 A3036 RMK A01 T10041026  RH  085%=      5-min Rain = 0
KOD1 081532Z 00012KT M00/M03 A3036 RMK A01 T10031026  RH  085%=      5-min Rain = 0
KOD1 081533Z 00011KT M00/M03 A3036 RMK A01 T10031025  RH  085%=      5-min Rain = 0
KOD1 081534Z 01011KT M00/M02 A3036 RMK A01 T10031024  RH  086%=      5-min Rain = 0
KOD1 081535Z 01012KT M00/M03 A3036 RMK A01 T10031026  RH  085%=      5-min Rain = 0
KOD1 081536Z 01011KT M00/M03 A3036 RMK A01 T10031026  RH  085%=      5-min Rain = 0
KOD1 081537Z 01011KT M00/M03 A3036 RMK A01 T10031025  RH  085%=      5-min Rain = 0
KOD1 081538Z 01013KT M00/M03 A3036 RMK A01 T10031026  RH  085%=      5-min Rain = 0
KOD1 081539Z 01010KT M00/M03 A3036 RMK A01 T10031027  RH  084%=      5-min Rain = 0
KOD1 081540Z 00011KT M00/M03 A3036 RMK A01 T10031025  RH  085%=      5-min Rain = 0
KOD1 081541Z 01010KT M00/M03 A3036 RMK A01 T10031025  RH  085%=      5-min Rain = 0
KOD1 081542Z 01010KT M00/M02 A3036 RMK A01 T10031024  RH  085%=      5-min Rain = 0
KOD1 081543Z 01010KT M00/M02 A3036 RMK A01 T10031024  RH  085%=      5-min Rain = 0
KOD1 081544Z 00009KT M00/M02 A3036 RMK A01 T10031023  RH  086%=      5-min Rain = 0
KOD1 081545Z 36009KT M00/M02 A3036 RMK A01 T10031022  RH  087%=      5-min Rain = 0
KOD1 081546Z 00009KT M00/M02 A3036 RMK A01 T10031022  RH  087%=      5-min Rain = 0
KOD1 081547Z 36010KT M00/M02 A3036 RMK A01 T10031022  RH  087%=      5-min Rain = 0
KOD1 081548Z 36009KT M00/M02 A3036 RMK A01 T10031021  RH  088%=      5-min Rain = 0
KOD1 081549Z 36008KT M00/M02 A3036 RMK A01 T10031020  RH  088%=      5-min Rain = 0
KOD1 081550Z 36008KT M00/M02 A3036 RMK A01 T10031019  RH  089%=      5-min Rain = 0
KOD1 081551Z 00008KT M00/M02 A3036 RMK A01 T10031019  RH  089%=      5-min Rain = 0
KOD1 081552Z 00009KT M00/M02 A3036 RMK A01 T10031018  RH  089%=      5-min Rain = 0
KOD1 081553Z 36008KT M00/M02 A3036 RMK A01 T10031018  RH  090%=      5-min Rain = 0
KOD1 081554Z 36011KT M00/M02 A3036 RMK A01 T10031018  RH  090%=      5-min Rain = 0
KOD1 081555Z 36012KT M00/M02 A3036 RMK A01 T10031021  RH  088%=      5-min Rain = 0
KOD1 081556Z 36012KT M00/M02 A3036 RMK A01 T10041021  RH  088%=      5-min Rain = 0
KOD1 081557Z 35010KT M00/M02 A3036 RMK A01 T10031021  RH  088%=      5-min Rain = 0
KOD1 081558Z 35010KT M00/M02 A3036 RMK A01 T10031021  RH  088%=      5-min Rain = 0
KOD1 081559Z 35010KT M00/M02 A3036 RMK A01 T10031021  RH  088%=      5-min Rain = 0
KOD1 081600Z 36012KT M00/M02 A3036 RMK A01 T10031023  RH  087%=      5-min Rain = 0
KOD1 081601Z 36013KT M00/M02 A3036 RMK A01 T10031024  RH  086%=      5-min Rain = 0
KOD1 081602Z 36012KT M00/M02 A3036 RMK A01 T10031024  RH  086%=      5-min Rain = 0
KOD1 081603Z 00011KT M00/M02 A3036 RMK A01 T10021023  RH  086%=      5-min Rain = 0
KOD1 081604Z 01012KT M00/M02 A3036 RMK A01 T10021022  RH  086%=      5-min Rain = 0
KOD1 081605Z 01012KT M00/M02 A3036 RMK A01 T10021023  RH  086%=      5-min Rain = 0
KOD1 081606Z 01012KT M00/M03 A3036 RMK A01 T10021025  RH  085%=      5-min Rain = 0
KOD1 081607Z 00010KT M00/M02 A3036 RMK A01 T10021023  RH  086%=      5-min Rain = 0
KOD1 081608Z 36010KT M00/M02 A3036 RMK A01 T10021023  RH  086%=      5-min Rain = 0
KOD1 081609Z 00012KT M00/M02 A3036 RMK A01 T10021024  RH  085%=      5-min Rain = 0
KOD1 081610Z 36011KT M00/M02 A3036 RMK A01 T10021024  RH  085%=      5-min Rain = 0
KOD1 081611Z 00011KT M00/M02 A3036 RMK A01 T10011023  RH  085%=      5-min Rain = 0
KOD1 081612Z 36010KT M00/M02 A3036 RMK A01 T10011023  RH  085%=      5-min Rain = 0
KOD1 081613Z 36012KT M00/M02 A3036 RMK A01 T10011023  RH  085%=      5-min Rain = 0
KOD1 081614Z 36012KT M00/M02 A3036 RMK A01 T10011024  RH  085%=      5-min Rain = 0
KOD1 081615Z 36012KT M00/M03 A3036 RMK A01 T10011025  RH  084%=      5-min Rain = 0
KOD1 081616Z 35010KT M00/M02 A3036 RMK A01 T10011024  RH  084%=      5-min Rain = 0
KOD1 081617Z 36010KT M00/M02 A3036 RMK A01 T10011024  RH  085%=      5-min Rain = 0
KOD1 081618Z 35009KT M00/M02 A3036 RMK A01 T10011022  RH  086%=      5-min Rain = 0
KOD1 081619Z 35011KT 00/02 A3036 RMK A01 T00-00-22  RH  086%=      5-min Rain = 0
KOD1 081620Z 35012KT M00/M02 A3036 RMK A01 T10011024  RH  084%=      5-min Rain = 0
KOD1 081621Z 35011KT M00/M02 A3036 RMK A01 T10011024  RH  084%=      5-min Rain = 0
KOD1 081622Z 36012KT 00/02 A3036 RMK A01 T00-00-23  RH  085%=      5-min Rain = 0
KOD1 081623Z 35012KT 00/02 A3036 RMK A01 T00-00-24  RH  084%=      5-min Rain = 0
KOD1 081624Z 36011KT 00/02 A3036 RMK A01 T00-00-23  RH  084%=      5-min Rain = 0
KOD1 081625Z 00014KT M00/M03 A3036 RMK A01 T10011025  RH  083%=      5-min Rain = 0
KOD1 081626Z 00012KT M00/M03 A3036 RMK A01 T10011025  RH  083%=      5-min Rain = 0
KOD1 081627Z 35010KT 00/02 A3036 RMK A01 T00-00-24  RH  084%=      5-min Rain = 0
KOD1 081628Z 36012KT 00/02 A3036 RMK A01 T00-00-24  RH  084%=      5-min Rain = 0
KOD1 081629Z 36012KT M00/M03 A3036 RMK A01 T10011025  RH  084%=      5-min Rain = 0
KOD1 081630Z 36012KT M00/M03 A3036 RMK A01 T10011026  RH  083%=      5-min Rain = 0
KOD1 081631Z 36012KT M00/M03 A3036 RMK A01 T10011026  RH  083%=      5-min Rain = 0
KOD1 081632Z 36011KT M00/M03 A3036 RMK A01 T10011025  RH  084%=      5-min Rain = 0
KOD1 081633Z 36011KT M00/M03 A3036 RMK A01 T10011026  RH  083%=      5-min Rain = 0
KOD1 081634Z 35009KT M00/M03 A3036 RMK A01 T10011025  RH  084%=      5-min Rain = 0
KOD1 081635Z 35010KT M00/M03 A3036 RMK A01 T10011025  RH  084%=      5-min Rain = 0
KOD1 081636Z 36011KT M00/M03 A3036 RMK A01 T10011025  RH  084%=      5-min Rain = 0
KOD1 081637Z 35010KT M00/M02 A3036 RMK A01 T10011024  RH  084%=      5-min Rain = 0
KOD1 081638Z 35010KT M00/M03 A3036 RMK A01 T10011025  RH  084%=      5-min Rain = 0
KOD1 081639Z 36012KT M00/M03 A3036 RMK A01 T10011026  RH  083%=      5-min Rain = 0
KOD1 081640Z 35012KT M00/M03 A3036 RMK A01 T10011026  RH  083%=      5-min Rain = 0
KOD1 081641Z 35012KT M00/M03 A3036 RMK A01 T10011028  RH  082%=      5-min Rain = 0
KOD1 081642Z 35013KT M00/M03 A3036 RMK A01 T10011027  RH  082%=      5-min Rain = 0
KOD1 081643Z 00012KT M00/M03 A3036 RMK A01 T10011027  RH  082%=      5-min Rain = 0
KOD1 081644Z 36010KT M00/M03 A3036 RMK A01 T10011026  RH  083%=      5-min Rain = 0
KOD1 081645Z 36011KT M00/M03 A3036 RMK A01 T10011026  RH  083%=      5-min Rain = 0
KOD1 081646Z 36012KT M00/M03 A3036 RMK A01 T10011028  RH  082%=      5-min Rain = 0
KOD1 081647Z 00014KT M00/M03 A3036 RMK A01 T10011032  RH  080%=      5-min Rain = 0
KOD1 081648Z 01011KT M00/M03 A3036 RMK A01 T10011032  RH  079%=      5-min Rain = 0
KOD1 081649Z 00012KT M00/M03 A3036 RMK A01 T10011031  RH  080%=      5-min Rain = 0
KOD1 081650Z 00013KT M00/M03 A3036 RMK A01 T10011033  RH  079%=      5-min Rain = 0
KOD1 081651Z 36012KT M00/M03 A3036 RMK A01 T10011032  RH  079%=      5-min Rain = 0
KOD1 081652Z 36010KT M00/M03 A3036 RMK A01 T10011030  RH  081%=      5-min Rain = 0
KOD1 081653Z 36010KT M00/M03 A3036 RMK A01 T10011029  RH  081%=      5-min Rain = 0
KOD1 081654Z 36010KT M00/M03 A3036 RMK A01 T10011028  RH  082%=      5-min Rain = 0
KOD1 081655Z 36011KT M00/M03 A3036 RMK A01 T10011029  RH  081%=      5-min Rain = 0
KOD1 081656Z 35010KT M00/M03 A3036 RMK A01 T10011029  RH  081%=      5-min Rain = 0
KOD1 081657Z 36011KT M00/M03 A3036 RMK A01 T10011028  RH  082%=      5-min Rain = 0
KOD1 081658Z 36010KT M00/M03 A3036 RMK A01 T10011027  RH  082%=      5-min Rain = 0
KOD1 081659Z 35009KT 00/03 A3036 RMK A01 T00-00-26  RH  083%=      5-min Rain = 0
KOD1 081700Z 35009KT 00/03 A3036 RMK A01 T00-00-25  RH  083%=      5-min Rain = 0
KOD1 081701Z 35010KT 00/03 A3036 RMK A01 T00000-25  RH  083%=      5-min Rain = 0
KOD1 081702Z 35009KT 00/02 A3036 RMK A01 T00000-24  RH  084%=      5-min Rain = 0
KOD1 081703Z 35010KT 00/03 A3036 RMK A01 T00000-25  RH  083%=      5-min Rain = 0
KOD1 081704Z 35009KT 00/03 A3036 RMK A01 T00000-25  RH  083%=      5-min Rain = 0
KOD1 081705Z 35010KT 00/M03 A3036 RMK A01 T00011025  RH  083%=      5-min Rain = 0
KOD1 081706Z 34010KT 00/M03 A3036 RMK A01 T00011025  RH  083%=      5-min Rain = 0
KOD1 081707Z 34009KT 00/M02 A3036 RMK A01 T00011024  RH  083%=      5-min Rain = 0
KOD1 081708Z 34010KT 00/M03 A3036 RMK A01 T00011025  RH  082%=      5-min Rain = 0
KOD1 081709Z 34008KT 00/M02 A3036 RMK A01 T00021024  RH  083%=      5-min Rain = 0
KOD1 081710Z 34011KT 00/M03 A3035 RMK A01 T00021025  RH  082%=      5-min Rain = 0
KOD1 081711Z 34012KT 00/M03 A3035 RMK A01 T00021028  RH  080%=      5-min Rain = 0
KOD1 081712Z 35010KT 00/M03 A3035 RMK A01 T00021027  RH  081%=      5-min Rain = 0
KOD1 081713Z 35011KT 00/M03 A3035 RMK A01 T00021027  RH  081%=      5-min Rain = 0
KOD1 081714Z 35012KT 00/M03 A3035 RMK A01 T00021027  RH  081%=      5-min Rain = 0
KOD1 081715Z 35012KT 00/M03 A3035 RMK A01 T00021027  RH  081%=      5-min Rain = 0
KOD1 081716Z 35011KT 00/M03 A3035 RMK A01 T00021027  RH  081%=      5-min Rain = 0
KOD1 081717Z 35013KT 00/M03 A3035 RMK A01 T00021030  RH  079%=      5-min Rain = 0
KOD1 081718Z 35012KT 00/M03 A3035 RMK A01 T00021029  RH  079%=      5-min Rain = 0
KOD1 081719Z 36014KT 00/M03 A3035 RMK A01 T00031028  RH  080%=      5-min Rain = 0
KOD1 081720Z 00012KT 00/M03 A3035 RMK A01 T00021030  RH  079%=      5-min Rain = 0
KOD1 081721Z 36012KT 00/M03 A3035 RMK A01 T00021030  RH  079%=      5-min Rain = 0
KOD1 081722Z 36011KT 00/M03 A3035 RMK A01 T00021030  RH  079%=      5-min Rain = 0
KOD1 081723Z 36010KT 00/M03 A3035 RMK A01 T00021030  RH  079%=      5-min Rain = 0
KOD1 081724Z 36011KT 00/M03 A3035 RMK A01 T00021029  RH  079%=      5-min Rain = 0
KOD1 081725Z 36010KT 00/M03 A3035 RMK A01 T00031028  RH  080%=      5-min Rain = 0
KOD1 081726Z 35009KT 00/M03 A3035 RMK A01 T00031027  RH  080%=      5-min Rain = 0
KOD1 081727Z 35008KT 00/M02 A3035 RMK A01 T00031024  RH  082%=      5-min Rain = 0
KOD1 081728Z 35009KT 00/M02 A3035 RMK A01 T00041024  RH  082%=      5-min Rain = 0
KOD1 081729Z 35010KT 00/M03 A3035 RMK A01 T00041026  RH  081%=      5-min Rain = 0
KOD1 081730Z 35008KT 00/M02 A3035 RMK A01 T00041024  RH  081%=      5-min Rain = 0
KOD1 081731Z 35010KT 00/M03 A3035 RMK A01 T00041026  RH  081%=      5-min Rain = 0
KOD1 081732Z 35008KT 00/M03 A3035 RMK A01 T00041025  RH  081%=      5-min Rain = 0
KOD1 081733Z 35008KT 01/M02 A3035 RMK A01 T00051022  RH  082%=      5-min Rain = 0
KOD1 081734Z 35009KT 01/M02 A3035 RMK A01 T00051022  RH  082%=      5-min Rain = 0
KOD1 081735Z 35010KT 01/M03 A3035 RMK A01 T00051025  RH  081%=      5-min Rain = 0
KOD1 081736Z 34011KT 01/M03 A3035 RMK A01 T00051025  RH  080%=      5-min Rain = 0
KOD1 081737Z 35010KT 01/M03 A3035 RMK A01 T00051025  RH  080%=      5-min Rain = 0
KOD1 081738Z 35013KT 01/M03 A3035 RMK A01 T00051026  RH  079%=      5-min Rain = 0
KOD1 081739Z 35012KT 01/M03 A3035 RMK A01 T00051027  RH  079%=      5-min Rain = 0
KOD1 081740Z 35012KT 01/M03 A3035 RMK A01 T00051027  RH  079%=      5-min Rain = 0
KOD1 081741Z 35010KT 01/M03 A3035 RMK A01 T00051026  RH  080%=      5-min Rain = 0
KOD1 081742Z 35009KT 01/M02 A3034 RMK A01 T00051024  RH  081%=      5-min Rain = 0
KOD1 081743Z 35011KT 01/M03 A3034 RMK A01 T00051025  RH  080%=      5-min Rain = 0
KOD1 081744Z 35011KT 01/M03 A3034 RMK A01 T00051026  RH  080%=      5-min Rain = 0
KOD1 081745Z 35011KT 01/M03 A3034 RMK A01 T00061026  RH  080%=      5-min Rain = 0
KOD1 081746Z 35010KT 01/M03 A3034 RMK A01 T00061026  RH  079%=      5-min Rain = 0
KOD1 081747Z 34010KT 01/M02 A3034 RMK A01 T00061024  RH  080%=      5-min Rain = 0
KOD1 081748Z 34012KT 01/M02 A3034 RMK A01 T00061024  RH  080%=      5-min Rain = 0
KOD1 081749Z 35011KT 01/M03 A3034 RMK A01 T00061025  RH  080%=      5-min Rain = 0
KOD1 081750Z 36009KT 01/M02 A3034 RMK A01 T00071024  RH  080%=      5-min Rain = 0
KOD1 081751Z 36008KT 01/M02 A3034 RMK A01 T00071021  RH  082%=      5-min Rain = 0
KOD1 081752Z 35011KT 01/M02 A3034 RMK A01 T00071024  RH  080%=      5-min Rain = 0
KOD1 081753Z 35011KT 01/M03 A3034 RMK A01 T00071025  RH  079%=      5-min Rain = 0
KOD1 081754Z 35012KT 01/M03 A3034 RMK A01 T00071026  RH  079%=      5-min Rain = 0
KOD1 081755Z 35010KT 01/M02 A3034 RMK A01 T00071024  RH  080%=      5-min Rain = 0
KOD1 081756Z 36009KT 01/M02 A3034 RMK A01 T00081022  RH  081%=      5-min Rain = 0
KOD1 081757Z 35011KT 01/M02 A3034 RMK A01 T00081020  RH  081%=      5-min Rain = 0
KOD1 081758Z 36011KT 01/M02 A3034 RMK A01 T00081024  RH  079%=      5-min Rain = 0
KOD1 081759Z 36008KT 01/M02 A3034 RMK A01 T00081021  RH  081%=      5-min Rain = 0
KOD1 081800Z 00009KT 01/M02 A3034 RMK A01 T00091019  RH  082%=      5-min Rain = 0
KOD1 081801Z 00010KT 01/M02 A3034 RMK A01 T00091020  RH  081%=      5-min Rain = 0
KOD1 081802Z 35010KT 01/M02 A3034 RMK A01 T00091021  RH  081%=      5-min Rain = 0
KOD1 081803Z 36010KT 01/M02 A3034 RMK A01 T00101019  RH  082%=      5-min Rain = 0.01
KOD1 081804Z 00009KT 01/M02 A3034 RMK A01 T00091022  RH  079%=      5-min Rain = 0
KOD1 081805Z 00011KT 01/M02 A3034 RMK A01 T00091022  RH  079%=      5-min Rain = 0
KOD1 081806Z 00010KT 01/M02 A3034 RMK A01 T00091023  RH  079%=      5-min Rain = 0
KOD1 081807Z 00011KT 01/M02 A3034 RMK A01 T00091022  RH  080%=      5-min Rain = 0.01
KOD1 081808Z 00009KT 01/M02 A3034 RMK A01 T00101019  RH  081%=      5-min Rain = 0
KOD1 081809Z 36009KT 01/M02 A3034 RMK A01 T00101017  RH  082%=      5-min Rain = 0
KOD1 081810Z 35007KT 01/M02 A3034 RMK A01 T00111016  RH  082%=      5-min Rain = 0.01
KOD1 081811Z 35008KT 01/M01 A3034 RMK A01 T00121014  RH  083%=      5-min Rain = 0
KOD1 081812Z 35010KT 01/M02 A3034 RMK A01 T00121017  RH  081%=      5-min Rain = 0
KOD1 081813Z 34009KT 01/M02 A3034 RMK A01 T00121017  RH  081%=      5-min Rain = 0
KOD1 081814Z 34011KT 01/M02 A3034 RMK A01 T00121021  RH  079%=      5-min Rain = 0
KOD1 081815Z 34011KT 01/M02 A3034 RMK A01 T00121022  RH  078%=      5-min Rain = 0
KOD1 081816Z 34009KT 01/M02 A3034 RMK A01 T00121023  RH  078%=      5-min Rain = 0
KOD1 081817Z 34011KT 01/M02 A3034 RMK A01 T00121020  RH  079%=      5-min Rain = 0
KOD1 081818Z 33013KT 01/M02 A3034 RMK A01 T00121023  RH  077%=      5-min Rain = 0
KOD1 081819Z 34012KT 01/M02 A3034 RMK A01 T00121022  RH  078%=      5-min Rain = 0
KOD1 081820Z 34011KT 01/M02 A3034 RMK A01 T00121024  RH  077%=      5-min Rain = 0
KOD1 081821Z 34011KT 01/M02 A3033 RMK A01 T00121022  RH  078%=      5-min Rain = 0
KOD1 081822Z 34011KT 01/M02 A3033 RMK A01 T00121022  RH  078%=      5-min Rain = 0
KOD1 081823Z 34012KT 01/M02 A3033 RMK A01 T00131020  RH  078%=      5-min Rain = 0
KOD1 081824Z 35012KT 01/M02 A3033 RMK A01 T00131022  RH  077%=      5-min Rain = 0
KOD1 081825Z 34011KT 01/M02 A3033 RMK A01 T00131020  RH  079%=      5-min Rain = 0
KOD1 081826Z 34011KT 01/M02 A3033 RMK A01 T00131021  RH  078%=      5-min Rain = 0
KOD1 081827Z 34010KT 01/M02 A3033 RMK A01 T00131021  RH  078%=      5-min Rain = 0
KOD1 081828Z 34010KT 01/M02 A3033 RMK A01 T00141019  RH  079%=      5-min Rain = 0
KOD1 081829Z 34011KT 01/M02 A3033 RMK A01 T00141020  RH  078%=      5-min Rain = 0
KOD1 081830Z 33011KT 01/M02 A3033 RMK A01 T00131022  RH  077%=      5-min Rain = 0
KOD1 081831Z 33012KT 01/M02 A3033 RMK A01 T00131021  RH  078%=      5-min Rain = 0
KOD1 081832Z 32012KT 01/M02 A3033 RMK A01 T00131021  RH  078%=      5-min Rain = 0
KOD1 081833Z 33014KT 01/M02 A3033 RMK A01 T00131021  RH  078%=      5-min Rain = 0
KOD1 081834Z 34014KT 01/M02 A3033 RMK A01 T00131023  RH  077%=      5-min Rain = 0
KOD1 081835Z 34012KT 01/M02 A3033 RMK A01 T00131022  RH  077%=      5-min Rain = 0
KOD1 081836Z 34012KT 01/M02 A3032 RMK A01 T00131023  RH  077%=      5-min Rain = 0
KOD1 081837Z 34011KT 01/M02 A3032 RMK A01 T00131023  RH  077%=      5-min Rain = 0
KOD1 081838Z 34010KT 01/M02 A3032 RMK A01 T00131020  RH  079%=      5-min Rain = 0
KOD1 081839Z 34010KT 01/M02 A3032 RMK A01 T00131019  RH  079%=      5-min Rain = 0
KOD1 081840Z 35012KT 01/M02 A3032 RMK A01 T00141019  RH  079%=      5-min Rain = 0
KOD1 081841Z 35011KT 01/M02 A3032 RMK A01 T00141019  RH  079%=      5-min Rain = 0
KOD1 081842Z 34008KT 01/M02 A3032 RMK A01 T00141018  RH  079%=      5-min Rain = 0
KOD1 081843Z 34008KT 02/M02 A3032 RMK A01 T00151017  RH  079%=      5-min Rain = 0
KOD1 081844Z 35009KT 02/M02 A3032 RMK A01 T00151018  RH  079%=      5-min Rain = 0
KOD1 081845Z 34010KT 02/M02 A3032 RMK A01 T00151017  RH  079%=      5-min Rain = 0
KOD1 081846Z 34011KT 02/M02 A3032 RMK A01 T00151021  RH  077%=      5-min Rain = 0
KOD1 081847Z 34010KT 02/M02 A3032 RMK A01 T00151020  RH  077%=      5-min Rain = 0
KOD1 081848Z 34011KT 02/M02 A3032 RMK A01 T00151020  RH  077%=      5-min Rain = 0
KOD1 081849Z 34012KT 02/M02 A3032 RMK A01 T00151023  RH  076%=      5-min Rain = 0
KOD1 081850Z 35011KT 02/M02 A3032 RMK A01 T00151023  RH  076%=      5-min Rain = 0
KOD1 081851Z 34011KT 02/M02 A3032 RMK A01 T00151023  RH  076%=      5-min Rain = 0
KOD1 081852Z 34012KT 02/M02 A3032 RMK A01 T00151024  RH  075%=      5-min Rain = 0
KOD1 081853Z 33012KT 02/M02 A3032 RMK A01 T00161022  RH  076%=      5-min Rain = 0
KOD1 081854Z 34011KT 02/M02 A3032 RMK A01 T00161024  RH  075%=      5-min Rain = 0
KOD1 081855Z 34009KT 02/M02 A3032 RMK A01 T00161018  RH  078%=      5-min Rain = 0
KOD1 081856Z 35010KT 02/M02 A3032 RMK A01 T00171019  RH  077%=      5-min Rain = 0
KOD1 081857Z 35011KT 02/M02 A3032 RMK A01 T00171019  RH  077%=      5-min Rain = 0
KOD1 081858Z 35008KT 02/M02 A3032 RMK A01 T00181016  RH  078%=      5-min Rain = 0
KOD1 081859Z 34008KT 02/M02 A3031 RMK A01 T00181016  RH  078%=      5-min Rain = 0
KOD1 081900Z 33010KT 02/M02 A3031 RMK A01 T00181021  RH  075%=      5-min Rain = 0
KOD1 081901Z 34009KT 02/M02 A3031 RMK A01 T00181019  RH  076%=      5-min Rain = 0
KOD1 081902Z 34008KT 02/M02 A3031 RMK A01 T00181019  RH  076%=      5-min Rain = 0
KOD1 081903Z 34010KT 02/M02 A3031 RMK A01 T00191020  RH  076%=      5-min Rain = 0
KOD1 081904Z 32011KT 02/M02 A3031 RMK A01 T00181023  RH  074%=      5-min Rain = 0
KOD1 081905Z 33011KT 02/M02 A3031 RMK A01 T00181024  RH  074%=      5-min Rain = 0.01
KOD1 081906Z 33008KT 02/M02 A3031 RMK A01 T00181019  RH  076%=      5-min Rain = 0
KOD1 081907Z 35008KT 02/M02 A3031 RMK A01 T00191017  RH  077%=      5-min Rain = 0
KOD1 081908Z 35011KT 02/M02 A3031 RMK A01 T00191019  RH  076%=      5-min Rain = 0
KOD1 081909Z 34010KT 02/M02 A3031 RMK A01 T00191020  RH  075%=      5-min Rain = 0
KOD1 081910Z 35011KT 02/M02 A3031 RMK A01 T00191019  RH  075%=      5-min Rain = 0
KOD1 081911Z 35012KT 02/M02 A3031 RMK A01 T00191023  RH  074%=      5-min Rain = 0
KOD1 081912Z 34011KT 02/M02 A3031 RMK A01 T00191024  RH  073%=      5-min Rain = 0
KOD1 081913Z 35010KT 02/M03 A3031 RMK A01 T00191025  RH  073%=      5-min Rain = 0
KOD1 081914Z 34011KT 02/M02 A3031 RMK A01 T00191023  RH  074%=      5-min Rain = 0
KOD1 081915Z 34010KT 02/M02 A303 RMK A01 T00191020  RH  075%=      5-min Rain = 0
KOD1 081916Z 34012KT 02/M02 A303 RMK A01 T00201022  RH  074%=      5-min Rain = 0
KOD1 081917Z 35012KT 02/M03 A303 RMK A01 T00191026  RH  072%=      5-min Rain = 0
KOD1 081918Z 35011KT 02/M02 A303 RMK A01 T00191024  RH  073%=      5-min Rain = 0
KOD1 081919Z 35010KT 02/M02 A303 RMK A01 T00191022  RH  074%=      5-min Rain = 0
KOD1 081920Z 33009KT 02/M02 A303 RMK A01 T00201022  RH  074%=      5-min Rain = 0
KOD1 081921Z 33010KT 02/M02 A303 RMK A01 T00201024  RH  073%=      5-min Rain = 0
KOD1 081922Z 33009KT 02/M02 A303 RMK A01 T00201022  RH  074%=      5-min Rain = 0
KOD1 081923Z 33011KT 02/M02 A303 RMK A01 T00201023  RH  073%=      5-min Rain = 0
KOD1 081924Z 33009KT 02/M02 A303 RMK A01 T00201020  RH  074%=      5-min Rain = 0
KOD1 081925Z 33011KT 02/M02 A303 RMK A01 T00211021  RH  074%=      5-min Rain = 0
KOD1 081926Z 34010KT 02/M02 A303 RMK A01 T00211024  RH  072%=      5-min Rain = 0
KOD1 081927Z 34012KT 02/M03 A303 RMK A01 T00211025  RH  071%=      5-min Rain = 0
KOD1 081928Z 34010KT 02/M03 A303 RMK A01 T00201026  RH  071%=      5-min Rain = 0
KOD1 081929Z 34011KT 02/M03 A303 RMK A01 T00211025  RH  072%=      5-min Rain = 0
KOD1 081930Z 34011KT 02/M03 A303 RMK A01 T00201027  RH  071%=      5-min Rain = 0
KOD1 081931Z 34010KT 02/M03 A303 RMK A01 T00201027  RH  071%=      5-min Rain = 0
KOD1 081932Z 33009KT 02/M02 A303 RMK A01 T00211024  RH  072%=      5-min Rain = 0
KOD1 081933Z 33012KT 02/M03 A303 RMK A01 T00211028  RH  070%=      5-min Rain = 0
KOD1 081934Z 33010KT 02/M03 A303 RMK A01 T00211026  RH  071%=      5-min Rain = 0
KOD1 081935Z 33008KT 02/M02 A303 RMK A01 T00211024  RH  072%=      5-min Rain = 0
KOD1 081936Z 33010KT 02/M02 A303 RMK A01 T00211023  RH  072%=      5-min Rain = 0
KOD1 081937Z 33008KT 02/M02 A303 RMK A01 T00221024  RH  072%=      5-min Rain = 0
KOD1 081938Z 32010KT 02/M03 A303 RMK A01 T00221025  RH  071%=      5-min Rain = 0
KOD1 081939Z 33012KT 02/M03 A303 RMK A01 T00221025  RH  071%=      5-min Rain = 0
KOD1 081940Z 33013KT 02/M03 A303 RMK A01 T00221029  RH  069%=      5-min Rain = 0
KOD1 081941Z 34011KT 02/M03 A303 RMK A01 T00211029  RH  069%=      5-min Rain = 0
KOD1 081942Z 34011KT 02/M03 A303 RMK A01 T00211027  RH  070%=      5-min Rain = 0
KOD1 081943Z 33012KT 02/M03 A303 RMK A01 T00211031  RH  068%=      5-min Rain = 0
KOD1 081944Z 32011KT 02/M03 A303 RMK A01 T00211030  RH  069%=      5-min Rain = 0
KOD1 081945Z 32010KT 02/M03 A303 RMK A01 T00211028  RH  070%=      5-min Rain = 0
KOD1 081946Z 32010KT 02/M03 A303 RMK A01 T00211028  RH  070%=      5-min Rain = 0
KOD1 081947Z 32011KT 02/M03 A303 RMK A01 T00211030  RH  069%=      5-min Rain = 0
KOD1 081948Z 32012KT 02/M03 A303 RMK A01 T00211031  RH  069%=      5-min Rain = 0
KOD1 081949Z 32013KT 02/M03 A303 RMK A01 T00211031  RH  069%=      5-min Rain = 0
KOD1 081950Z 32011KT 02/M03 A303 RMK A01 T00211031  RH  068%=      5-min Rain = 0
KOD1 081951Z 31010KT 02/M03 A303 RMK A01 T00211030  RH  069%=      5-min Rain = 0
KOD1 081952Z 32011KT 02/M03 A303 RMK A01 T00211026  RH  071%=      5-min Rain = 0
KOD1 081953Z 32012KT 02/M03 A303 RMK A01 T00221027  RH  070%=      5-min Rain = 0
KOD1 081954Z 33012KT 02/M03 A3029 RMK A01 T00221029  RH  069%=      5-min Rain = 0
KOD1 081955Z 32012KT 02/M03 A3029 RMK A01 T00221028  RH  069%=      5-min Rain = 0
KOD1 081956Z 33013KT 02/M03 A3029 RMK A01 T00221029  RH  069%=      5-min Rain = 0
KOD1 081957Z 33012KT 02/M03 A3029 RMK A01 T00221030  RH  068%=      5-min Rain = 0
KOD1 081958Z 33012KT 02/M03 A3029 RMK A01 T00221032  RH  067%=      5-min Rain = 0
KOD1 081959Z 33010KT 02/M03 A3029 RMK A01 T00221030  RH  069%=      5-min Rain = 0
KOD1 082000Z 33012KT 02/M03 A3029 RMK A01 T00221029  RH  069%=      5-min Rain = 0
KOD1 082001Z 33013KT 02/M03 A3029 RMK A01 T00221028  RH  069%=      5-min Rain = 0
KOD1 082002Z 33011KT 02/M03 A3029 RMK A01 T00221029  RH  069%=      5-min Rain = 0
KOD1 082003Z 33010KT 02/M03 A3029 RMK A01 T00221029  RH  069%=      5-min Rain = 0
KOD1 082004Z 33011KT 02/M03 A3029 RMK A01 T00221030  RH  068%=      5-min Rain = 0
KOD1 082005Z 33011KT 02/M03 A3029 RMK A01 T00231027  RH  070%=      5-min Rain = 0
KOD1 082006Z 34011KT 02/M03 A3029 RMK A01 T00231027  RH  070%=      5-min Rain = 0
KOD1 082007Z 34013KT 02/M03 A3029 RMK A01 T00231033  RH  067%=      5-min Rain = 0
KOD1 082008Z 34013KT 02/M03 A3029 RMK A01 T00231033  RH  067%=      5-min Rain = 0
KOD1 082009Z 34011KT 02/M03 A3029 RMK A01 T00221034  RH  066%=      5-min Rain = 0
KOD1 082010Z 34011KT 02/M03 A3029 RMK A01 T00221033  RH  067%=      5-min Rain = 0
KOD1 082011Z 34012KT 02/M03 A3029 RMK A01 T00231032  RH  067%=      5-min Rain = 0
KOD1 082012Z 34010KT 02/M03 A3029 RMK A01 T00231032  RH  067%=      5-min Rain = 0
KOD1 082013Z 34010KT 02/M03 A3029 RMK A01 T00231029  RH  069%=      5-min Rain = 0
KOD1 082014Z 34011KT 02/M03 A3029 RMK A01 T00231030  RH  068%=      5-min Rain = 0
KOD1 082015Z 33010KT 02/M03 A3029 RMK A01 T00231030  RH  068%=      5-min Rain = 0
KOD1 082016Z 33009KT 02/M03 A3029 RMK A01 T00241025  RH  070%=      5-min Rain = 0
KOD1 082017Z 32010KT 02/M03 A3029 RMK A01 T00241027  RH  069%=      5-min Rain = 0
KOD1 082018Z 32011KT 02/M03 A3029 RMK A01 T00241032  RH  067%=      5-min Rain = 0
KOD1 082019Z 32010KT 02/M03 A3029 RMK A01 T00241029  RH  068%=      5-min Rain = 0
KOD1 082020Z 32009KT 02/M03 A3029 RMK A01 T00241026  RH  070%=      5-min Rain = 0
KOD1 082021Z 34010KT 02/M03 A3029 RMK A01 T00241028  RH  068%=      5-min Rain = 0
KOD1 082022Z 33012KT 02/M03 A3029 RMK A01 T00241032  RH  066%=      5-min Rain = 0
KOD1 082023Z 33012KT 02/M03 A3029 RMK A01 T00241031  RH  067%=      5-min Rain = 0
KOD1 082024Z 34011KT 02/M03 A3029 RMK A01 T00241033  RH  066%=      5-min Rain = 0
KOD1 082025Z 34009KT 02/M03 A3029 RMK A01 T00241032  RH  066%=      5-min Rain = 0
KOD1 082026Z 34008KT 02/M03 A3029 RMK A01 T00241028  RH  068%=      5-min Rain = 0
KOD1 082027Z 33010KT 03/M03 A3029 RMK A01 T00251026  RH  069%=      5-min Rain = 0
KOD1 082028Z 33010KT 03/M03 A3029 RMK A01 T00251029  RH  068%=      5-min Rain = 0
KOD1 082029Z 33011KT 03/M03 A3029 RMK A01 T00251031  RH  066%=      5-min Rain = 0
KOD1 082030Z 32010KT 03/M03 A3029 RMK A01 T00251031  RH  067%=      5-min Rain = 0
KOD1 082031Z 34009KT 03/M03 A3029 RMK A01 T00251029  RH  068%=      5-min Rain = 0
KOD1 082032Z 33012KT 03/M03 A3029 RMK A01 T00251030  RH  067%=      5-min Rain = 0
KOD1 082033Z 33010KT 03/M03 A3029 RMK A01 T00251032  RH  066%=      5-min Rain = 0
KOD1 082034Z 33012KT 03/M03 A3028 RMK A01 T00251032  RH  066%=      5-min Rain = 0
KOD1 082035Z 33011KT 03/M03 A3028 RMK A01 T00261032  RH  066%=      5-min Rain = 0
KOD1 082036Z 34012KT 03/M03 A3028 RMK A01 T00261031  RH  066%=      5-min Rain = 0
KOD1 082037Z 33011KT 03/M03 A3028 RMK A01 T00261031  RH  066%=      5-min Rain = 0
KOD1 082038Z 33012KT 03/M04 A3028 RMK A01 T00271035  RH  064%=      5-min Rain = 0
KOD1 082039Z 34011KT 03/M03 A3028 RMK A01 T00271032  RH  065%=      5-min Rain = 0
KOD1 082040Z 34011KT 03/M03 A3028 RMK A01 T00271033  RH  065%=      5-min Rain = 0
KOD1 082041Z 34013KT 03/M03 A3028 RMK A01 T00281032  RH  065%=      5-min Rain = 0
KOD1 082042Z 34012KT 03/M03 A3028 RMK A01 T00281034  RH  064%=      5-min Rain = 0
KOD1 082043Z 34011KT 03/M03 A3028 RMK A01 T00281032  RH  065%=      5-min Rain = 0
KOD1 082044Z 34011KT 03/M03 A3028 RMK A01 T00281031  RH  065%=      5-min Rain = 0
KOD1 082045Z 33010KT 03/M03 A3028 RMK A01 T00291029  RH  066%=      5-min Rain = 0
KOD1 082046Z 32010KT 03/M03 A3028 RMK A01 T00291028  RH  066%=      5-min Rain = 0
KOD1 082047Z 33010KT 03/M03 A3028 RMK A01 T00291033  RH  064%=      5-min Rain = 0
KOD1 082048Z 33010KT 03/M03 A3028 RMK A01 T00291031  RH  064%=      5-min Rain = 0
KOD1 082049Z 34013KT 03/M03 A3028 RMK A01 T00301032  RH  064%=      5-min Rain = 0
KOD1 082050Z 33012KT 03/M04 A3028 RMK A01 T00291035  RH  063%=      5-min Rain = 0
KOD1 082051Z 33012KT 03/M04 A3028 RMK A01 T00291035  RH  063%=      5-min Rain = 0
KOD1 082052Z 33013KT 03/M03 A3028 RMK A01 T00301034  RH  063%=      5-min Rain = 0
KOD1 082053Z 33010KT 03/M03 A3028 RMK A01 T00301034  RH  063%=      5-min Rain = 0
KOD1 082054Z 33012KT 03/M04 A3028 RMK A01 T00301035  RH  062%=      5-min Rain = 0
KOD1 082055Z 32010KT 03/M03 A3028 RMK A01 T00301033  RH  063%=      5-min Rain = 0
KOD1 082056Z 33011KT 03/M03 A3028 RMK A01 T00311032  RH  063%=      5-min Rain = 0
KOD1 082057Z 32011KT 03/M03 A3028 RMK A01 T00311034  RH  062%=      5-min Rain = 0
KOD1 082058Z 32012KT 03/M03 A3028 RMK A01 T00311034  RH  062%=      5-min Rain = 0
KOD1 082059Z 33011KT 03/M04 A3028 RMK A01 T00311035  RH  062%=      5-min Rain = 0
KOD1 082100Z 33009KT 03/M03 A3028 RMK A01 T00311032  RH  063%=      5-min Rain = 0
KOD1 082101Z 33009KT 03/M03 A3028 RMK A01 T00321030  RH  064%=      5-min Rain = 0
KOD1 082102Z 33010KT 03/M03 A3028 RMK A01 T00321030  RH  064%=      5-min Rain = 0
KOD1 082103Z 33010KT 03/M03 A3028 RMK A01 T00331030  RH  063%=      5-min Rain = 0
KOD1 082104Z 32010KT 03/M03 A3028 RMK A01 T00331030  RH  063%=      5-min Rain = 0
KOD1 082105Z 33013KT 03/M03 A3028 RMK A01 T00331033  RH  062%=      5-min Rain = 0
KOD1 082106Z 32012KT 03/M03 A3028 RMK A01 T00331034  RH  062%=      5-min Rain = 0
KOD1 082107Z 32009KT 03/M03 A3028 RMK A01 T00331031  RH  063%=      5-min Rain = 0
KOD1 082108Z 32010KT 03/M03 A3028 RMK A01 T00331031  RH  063%=      5-min Rain = 0
KOD1 082109Z 31011KT 03/M03 A3027 RMK A01 T00331031  RH  063%=      5-min Rain = 0
KOD1 082110Z 31011KT 03/M03 A3027 RMK A01 T00331034  RH  062%=      5-min Rain = 0
KOD1 082111Z 32011KT 03/M03 A3027 RMK A01 T00331029  RH  064%=      5-min Rain = 0
KOD1 082112Z 33012KT 03/M03 A3027 RMK A01 T00341032  RH  062%=      5-min Rain = 0
KOD1 082113Z 32012KT 03/M04 A3027 RMK A01 T00341035  RH  061%=      5-min Rain = 0
KOD1 082114Z 33008KT 03/M03 A3027 RMK A01 T00341031  RH  063%=      5-min Rain = 0
KOD1 082115Z 32011KT 03/M03 A3027 RMK A01 T00341032  RH  062%=      5-min Rain = 0
KOD1 082116Z 31012KT 03/M03 A3027 RMK A01 T00341033  RH  062%=      5-min Rain = 0
KOD1 082117Z 32013KT 03/M03 A3027 RMK A01 T00341034  RH  061%=      5-min Rain = 0
KOD1 082118Z 33013KT 03/M04 A3027 RMK A01 T00331036  RH  060%=      5-min Rain = 0
KOD1 082119Z 33011KT 03/M03 A3027 RMK A01 T00331033  RH  062%=      5-min Rain = 0
KOD1 082120Z 33010KT 03/M03 A3027 RMK A01 T00331032  RH  062%=      5-min Rain = 0
KOD1 082121Z 33010KT 03/M03 A3027 RMK A01 T00331033  RH  062%=      5-min Rain = 0
KOD1 082122Z 33011KT 03/M03 A3027 RMK A01 T00331033  RH  062%=      5-min Rain = 0
KOD1 082123Z 33011KT 03/M04 A3027 RMK A01 T00331035  RH  061%=      5-min Rain = 0
KOD1 082124Z 33010KT 03/M04 A3027 RMK A01 T00331036  RH  061%=      5-min Rain = 0
KOD1 082125Z 33012KT 03/M04 A3027 RMK A01 T00341035  RH  061%=      5-min Rain = 0
KOD1 082126Z 33011KT 03/M04 A3027 RMK A01 T00341036  RH  060%=      5-min Rain = 0
KOD1 082127Z 33012KT 03/M04 A3027 RMK A01 T00331039  RH  059%=      5-min Rain = 0
KOD1 082128Z 33011KT 03/M04 A3027 RMK A01 T00331038  RH  060%=      5-min Rain = 0
KOD1 082129Z 34009KT 03/M04 A3027 RMK A01 T00331035  RH  061%=      5-min Rain = 0
KOD1 082130Z 33009KT 03/M03 A3027 RMK A01 T00341033  RH  062%=      5-min Rain = 0
KOD1 082131Z 33010KT 03/M04 A3027 RMK A01 T00341035  RH  061%=      5-min Rain = 0
KOD1 082132Z 33010KT 03/M04 A3027 RMK A01 T00341035  RH  061%=      5-min Rain = 0
KOD1 082133Z 33010KT 03/M04 A3027 RMK A01 T00341035  RH  061%=      5-min Rain = 0
KOD1 082134Z 34010KT 03/M04 A3027 RMK A01 T00341036  RH  060%=      5-min Rain = 0
KOD1 082135Z 34010KT 03/M04 A3027 RMK A01 T00341038  RH  060%=      5-min Rain = 0
KOD1 082136Z 34009G14KT 03/M04 A3027 RMK A01 T00341036  RH  060%=      5-min Rain = 0
KOD1 082137Z 33010KT 03/M04 A3027 RMK A01 T00341035  RH  060%=      5-min Rain = 0
KOD1 082138Z 33009KT 03/M04 A3027 RMK A01 T00341037  RH  060%=      5-min Rain = 0
KOD1 082139Z 33010KT 03/M04 A3027 RMK A01 T00341039  RH  059%=      5-min Rain = 0
KOD1 082140Z 34012KT 03/M04 A3027 RMK A01 T00331040  RH  059%=      5-min Rain = 0
KOD1 082141Z 34011KT 03/M04 A3027 RMK A01 T00331041  RH  058%=      5-min Rain = 0
KOD1 082142Z 34012KT 03/M05 A3027 RMK A01 T00331045  RH  057%=      5-min Rain = 0
KOD1 082143Z 34009KT 03/M04 A3027 RMK A01 T00331043  RH  058%=      5-min Rain = 0
KOD1 082144Z 33009KT 03/M04 A3027 RMK A01 T00331044  RH  057%=      5-min Rain = 0
KOD1 082145Z 34010KT 03/M04 A3027 RMK A01 T00331043  RH  057%=      5-min Rain = 0
KOD1 082146Z 34011KT 03/M04 A3027 RMK A01 T00331042  RH  058%=      5-min Rain = 0
KOD1 082147Z 34011KT 03/M04 A3027 RMK A01 T00331042  RH  058%=      5-min Rain = 0
KOD1 082148Z 34011KT 03/M04 A3027 RMK A01 T00331043  RH  057%=      5-min Rain = 0
KOD1 082149Z 34011KT 03/M04 A3027 RMK A01 T00341042  RH  058%=      5-min Rain = 0
KOD1 082150Z 34010KT 03/M04 A3027 RMK A01 T00341042  RH  057%=      5-min Rain = 0
KOD1 082151Z 34012KT 03/M04 A3027 RMK A01 T00341044  RH  057%=      5-min Rain = 0
KOD1 082152Z 34011KT 03/M05 A3027 RMK A01 T00341045  RH  056%=      5-min Rain = 0
KOD1 082153Z 34010KT 03/M04 A3027 RMK A01 T00341042  RH  057%=      5-min Rain = 0
KOD1 082154Z 34008KT 03/M04 A3027 RMK A01 T00341040  RH  058%=      5-min Rain = 0
KOD1 082155Z 34010KT 03/M04 A3027 RMK A01 T00341039  RH  059%=      5-min Rain = 0
KOD1 082156Z 34008KT 04/M04 A3027 RMK A01 T00351037  RH  060%=      5-min Rain = 0
KOD1 082157Z 34007KT 04/M04 A3027 RMK A01 T00351035  RH  060%=      5-min Rain = 0
KOD1 082158Z 33009KT 04/M04 A3027 RMK A01 T00351038  RH  058%=      5-min Rain = 0
KOD1 082159Z 33009KT 04/M04 A3027 RMK A01 T00361038  RH  058%=      5-min Rain = 0
KOD1 082200Z 33010KT 04/M04 A3027 RMK A01 T00361039  RH  058%=      5-min Rain = 0
KOD1 082201Z 34011KT 04/M04 A3027 RMK A01 T00361042  RH  057%=      5-min Rain = 0
KOD1 082202Z 34011KT 04/M04 A3027 RMK A01 T00361043  RH  057%=      5-min Rain = 0
KOD1 082203Z 33011KT 04/M04 A3027 RMK A01 T00351044  RH  056%=      5-min Rain = 0
KOD1 082204Z 33011KT 04/M04 A3027 RMK A01 T00351044  RH  056%=      5-min Rain = 0
KOD1 082205Z 32009KT 04/M04 A3027 RMK A01 T00351042  RH  057%=      5-min Rain = 0
KOD1 082206Z 32010KT 04/M04 A3027 RMK A01 T00361039  RH  058%=      5-min Rain = 0
KOD1 082207Z 33010KT 04/M04 A3027 RMK A01 T00361041  RH  057%=      5-min Rain = 0
KOD1 082208Z 33012KT 04/M05 A3027 RMK A01 T00361045  RH  055%=      5-min Rain = 0
KOD1 082209Z 33011KT 04/M05 A3027 RMK A01 T00351045  RH  056%=      5-min Rain = 0
KOD1 082210Z 33011KT 04/M04 A3027 RMK A01 T00351044  RH  056%=      5-min Rain = 0
KOD1 082211Z 33012KT 04/M04 A3027 RMK A01 T00351044  RH  056%=      5-min Rain = 0
KOD1 082212Z 34011KT 04/M04 A3027 RMK A01 T00351044  RH  056%=      5-min Rain = 0
KOD1 082213Z 33009KT 04/M04 A3027 RMK A01 T00361044  RH  056%=      5-min Rain = 0
KOD1 082214Z 34008KT 04/M04 A3027 RMK A01 T00361042  RH  057%=      5-min Rain = 0
KOD1 082215Z 33009KT 04/M04 A3027 RMK A01 T00361040  RH  057%=      5-min Rain = 0
KOD1 082216Z 33011KT 04/M04 A3027 RMK A01 T00361043  RH  056%=      5-min Rain = 0
KOD1 082217Z 32010KT 04/M04 A3027 RMK A01 T00361044  RH  056%=      5-min Rain = 0
KOD1 082218Z 33010KT 04/M04 A3027 RMK A01 T00361043  RH  056%=      5-min Rain = 0
KOD1 082219Z 33010KT 04/M04 A3027 RMK A01 T00361042  RH  057%=      5-min Rain = 0
KOD1 082220Z 33010KT 04/M04 A3027 RMK A01 T00361042  RH  057%=      5-min Rain = 0
KOD1 082221Z 32007KT 04/M04 A3027 RMK A01 T00361042  RH  057%=      5-min Rain = 0
KOD1 082222Z 34009KT 04/M04 A3027 RMK A01 T00361040  RH  057%=      5-min Rain = 0
KOD1 082223Z 33011KT 04/M05 A3027 RMK A01 T00361045  RH  056%=      5-min Rain = 0
KOD1 082224Z 33010KT 04/M05 A3027 RMK A01 T00351046  RH  055%=      5-min Rain = 0
KOD1 082225Z 33012KT 04/M05 A3027 RMK A01 T00351045  RH  056%=      5-min Rain = 0
KOD1 082226Z 33011KT 04/M05 A3027 RMK A01 T00351047  RH  055%=      5-min Rain = 0
KOD1 082227Z 33011KT 03/M05 A3027 RMK A01 T00341045  RH  056%=      5-min Rain = 0
KOD1 082228Z 33012KT 03/M05 A3027 RMK A01 T00341046  RH  056%=      5-min Rain = 0
KOD1 082229Z 32010KT 03/M05 A3027 RMK A01 T00341046  RH  056%=      5-min Rain = 0
KOD1 082230Z 32010KT 03/M05 A3027 RMK A01 T00341046  RH  056%=      5-min Rain = 0
KOD1 082231Z 32011KT 03/M05 A3027 RMK A01 T00341045  RH  056%=      5-min Rain = 0
KOD1 082232Z 32010KT 03/M05 A3027 RMK A01 T00331046  RH  056%=      5-min Rain = 0
KOD1 082233Z 33010KT 03/M05 A3028 RMK A01 T00331046  RH  056%=      5-min Rain = 0
KOD1 082234Z 33010KT 03/M04 A3028 RMK A01 T00331044  RH  057%=      5-min Rain = 0
KOD1 082235Z 33009KT 03/M04 A3028 RMK A01 T00331044  RH  057%=      5-min Rain = 0
KOD1 082236Z 33010KT 03/M04 A3028 RMK A01 T00331044  RH  057%=      5-min Rain = 0
KOD1 082237Z 33008KT 03/M04 A3028 RMK A01 T00331043  RH  057%=      5-min Rain = 0
KOD1 082238Z 33008KT 03/M04 A3028 RMK A01 T00331041  RH  058%=      5-min Rain = 0
KOD1 082239Z 33010KT 03/M04 A3028 RMK A01 T00331044  RH  057%=      5-min Rain = 0
KOD1 082240Z 33011KT 03/M05 A3028 RMK A01 T00331045  RH  057%=      5-min Rain = 0
KOD1 082241Z 34011KT 03/M05 A3028 RMK A01 T00331046  RH  056%=      5-min Rain = 0
KOD1 082242Z 33010KT 03/M05 A3028 RMK A01 T00331047  RH  056%=      5-min Rain = 0
KOD1 082243Z 33009KT 03/M05 A3028 RMK A01 T00331046  RH  056%=      5-min Rain = 0
KOD1 082244Z 33009KT 03/M05 A3028 RMK A01 T00321046  RH  056%=      5-min Rain = 0
KOD1 082245Z 33010KT 03/M05 A3028 RMK A01 T00321048  RH  056%=      5-min Rain = 0
KOD1 082246Z 33009KT 03/M05 A3028 RMK A01 T00321046  RH  057%=      5-min Rain = 0
KOD1 082247Z 33010KT 03/M05 A3028 RMK A01 T00321046  RH  056%=      5-min Rain = 0
KOD1 082248Z 33010KT 03/M05 A3028 RMK A01 T00321046  RH  056%=      5-min Rain = 0
KOD1 082249Z 33009KT 03/M05 A3028 RMK A01 T00321045  RH  057%=      5-min Rain = 0
KOD1 082250Z 33009KT 03/M04 A3028 RMK A01 T00321044  RH  057%=      5-min Rain = 0
KOD1 082251Z 33010KT 03/M05 A3028 RMK A01 T00321046  RH  057%=      5-min Rain = 0
KOD1 082252Z 33009KT 03/M05 A3028 RMK A01 T00321046  RH  056%=      5-min Rain = 0
KOD1 082253Z 33008KT 03/M04 A3028 RMK A01 T00321044  RH  058%=      5-min Rain = 0
KOD1 082254Z 33009KT 03/M05 A3028 RMK A01 T00321045  RH  057%=      5-min Rain = 0
KOD1 082255Z 33009KT 03/M05 A3028 RMK A01 T00321045  RH  057%=      5-min Rain = 0
KOD1 082256Z 32010KT 03/M05 A3028 RMK A01 T00321045  RH  057%=      5-min Rain = 0
KOD1 082257Z 33008KT 03/M05 A3028 RMK A01 T00321046  RH  057%=      5-min Rain = 0
KOD1 082258Z 33008KT 03/M04 A3028 RMK A01 T00321044  RH  057%=      5-min Rain = 0
KOD1 082259Z 32009KT 03/M05 A3029 RMK A01 T00321046  RH  057%=      5-min Rain = 0
KOD1 082300Z 33009KT 03/M05 A3029 RMK A01 T00321045  RH  057%=      5-min Rain = 0
KOD1 082301Z 33009KT 03/M05 A3029 RMK A01 T00321045  RH  057%=      5-min Rain = 0
KOD1 082302Z 33008KT 03/M05 A3029 RMK A01 T00321045  RH  057%=      5-min Rain = 0
KOD1 082303Z 33008KT 03/M05 A3029 RMK A01 T00321045  RH  057%=      5-min Rain = 0
KOD1 082304Z 33007KT 03/M04 A3029 RMK A01 T00321044  RH  058%=      5-min Rain = 0
KOD1 082305Z 34009KT 03/M05 A3029 RMK A01 T00321045  RH  057%=      5-min Rain = 0
KOD1 082306Z 33007KT 03/M05 A3029 RMK A01 T00321045  RH  057%=      5-min Rain = 0
KOD1 082307Z 33008KT 03/M04 A3029 RMK A01 T00321044  RH  057%=      5-min Rain = 0
KOD1 082308Z 33007KT 03/M04 A3029 RMK A01 T00321044  RH  058%=      5-min Rain = 0
KOD1 082309Z 33008KT 03/M04 A3029 RMK A01 T00321043  RH  058%=      5-min Rain = 0
KOD1 082310Z 33007KT 03/M04 A3029 RMK A01 T00321044  RH  058%=      5-min Rain = 0
KOD1 082311Z 33006KT 03/M04 A3028 RMK A01 T00321042  RH  058%=      5-min Rain = 0
KOD1 082312Z 33006KT 03/M04 A3028 RMK A01 T00321042  RH  058%=      5-min Rain = 0
KOD1 082313Z 33005KT 03/M04 A3028 RMK A01 T00321040  RH  059%=      5-min Rain = 0
KOD1 082314Z 33006KT 03/M04 A3028 RMK A01 T00321040  RH  059%=      5-min Rain = 0
KOD1 082315Z 33006KT 03/M04 A3028 RMK A01 T00321042  RH  058%=      5-min Rain = 0
KOD1 082316Z 34007KT 03/M04 A3028 RMK A01 T00321041  RH  059%=      5-min Rain = 0
KOD1 082317Z 34006KT 03/M04 A3028 RMK A01 T00321041  RH  059%=      5-min Rain = 0
KOD1 082318Z 33006KT 03/M04 A3028 RMK A01 T00321041  RH  059%=      5-min Rain = 0
KOD1 082319Z 33005KT 03/M04 A3028 RMK A01 T00321039  RH  059%=      5-min Rain = 0
KOD1 082320Z 33006KT 03/M04 A3029 RMK A01 T00321040  RH  059%=      5-min Rain = 0
KOD1 082321Z 33005KT 03/M04 A3029 RMK A01 T00321039  RH  059%=      5-min Rain = 0
KOD1 082322Z 33006KT 03/M04 A3029 RMK A01 T00321038  RH  060%=      5-min Rain = 0
KOD1 082323Z 33006KT 03/M04 A3029 RMK A01 T00321039  RH  059%=      5-min Rain = 0
KOD1 082324Z 33006KT 03/M04 A3029 RMK A01 T00321039  RH  060%=      5-min Rain = 0
KOD1 082325Z 33006KT 03/M04 A3029 RMK A01 T00321040  RH  059%=      5-min Rain = 0
KOD1 082326Z 34006KT 03/M04 A3029 RMK A01 T00321040  RH  059%=      5-min Rain = 0
KOD1 082327Z 34005KT 03/M04 A3029 RMK A01 T00321039  RH  060%=      5-min Rain = 0
KOD1 082328Z 34006KT 03/M04 A3029 RMK A01 T00321039  RH  059%=      5-min Rain = 0
KOD1 082329Z 33006KT 03/M04 A3029 RMK A01 T00321041  RH  059%=      5-min Rain = 0
KOD1 082330Z 33005KT 03/M04 A3029 RMK A01 T00321040  RH  059%=      5-min Rain = 0
KOD1 082331Z 33004KT 03/M04 A3029 RMK A01 T00321038  RH  060%=      5-min Rain = 0
KOD1 082332Z 34005KT 03/M04 A3029 RMK A01 T00321038  RH  060%=      5-min Rain = 0
KOD1 082333Z 33005KT 03/M04 A3029 RMK A01 T00311038  RH  060%=      5-min Rain = 0
KOD1 082334Z 33005KT 03/M04 A3029 RMK A01 T00311038  RH  060%=      5-min Rain = 0
KOD1 082335Z 33005KT 03/M04 A3029 RMK A01 T00311039  RH  060%=      5-min Rain = 0
KOD1 082336Z 33004KT 03/M04 A3029 RMK A01 T00311037  RH  061%=      5-min Rain = 0
KOD1 082337Z 33004KT 03/M04 A3029 RMK A01 T00311037  RH  061%=      5-min Rain = 0
KOD1 082338Z 33005KT 03/M04 A3029 RMK A01 T00311037  RH  061%=      5-min Rain = 0
KOD1 082339Z 34004KT 03/M04 A3029 RMK A01 T00311038  RH  061%=      5-min Rain = 0
KOD1 082340Z 34005KT 03/M04 A3029 RMK A01 T00311038  RH  061%=      5-min Rain = 0
KOD1 082341Z 34004KT 03/M04 A3029 RMK A01 T00311038  RH  061%=      5-min Rain = 0
KOD1 082342Z 34005KT 03/M04 A3029 RMK A01 T00311037  RH  061%=      5-min Rain = 0
KOD1 082343Z 34005KT 03/M04 A3029 RMK A01 T00311038  RH  060%=      5-min Rain = 0
KOD1 082344Z 34004KT 03/M04 A3029 RMK A01 T00311036  RH  061%=      5-min Rain = 0
KOD1 082345Z 34005KT 03/M04 A3029 RMK A01 T00311036  RH  062%=      5-min Rain = 0
KOD1 082346Z 34005KT 03/M04 A3029 RMK A01 T00311037  RH  061%=      5-min Rain = 0
KOD1 082347Z 34005KT 03/M04 A3029 RMK A01 T00301038  RH  061%=      5-min Rain = 0
KOD1 082348Z 33005KT 03/M04 A3029 RMK A01 T00301038  RH  061%=      5-min Rain = 0
KOD1 082349Z 33005KT 03/M04 A3029 RMK A01 T00311037  RH  061%=      5-min Rain = 0
KOD1 082350Z 33004KT 03/M04 A3029 RMK A01 T00311035  RH  062%=      5-min Rain = 0
KOD1 082351Z 33004KT 03/M04 A3029 RMK A01 T00301035  RH  062%=      5-min Rain = 0
KOD1 082352Z 33004KT 03/M04 A3029 RMK A01 T00301035  RH  062%=      5-min Rain = 0
KOD1 082353Z 33004KT 03/M04 A3029 RMK A01 T00301036  RH  062%=      5-min Rain = 0
KOD1 082354Z 33005KT 03/M04 A3029 RMK A01 T00301037  RH  061%=      5-min Rain = 0
KOD1 082355Z 34005KT 03/M04 A3029 RMK A01 T00301037  RH  062%=      5-min Rain = 0
KOD1 082356Z 34004KT 03/M04 A3029 RMK A01 T00301036  RH  062%=      5-min Rain = 0
KOD1 082357Z 33004KT 03/M04 A3029 RMK A01 T00301036  RH  062%=      5-min Rain = 0
KOD1 082358Z 34004KT 03/M04 A3029 RMK A01 T00301035  RH  062%=      5-min Rain = 0
KOD1 082359Z 33004KT 03/M04 A3029 RMK A01 T00301035  RH  062%=      5-min Rain = 0
KOD1 090000Z 33004KT 03/M04 A3029 RMK A01 T00301035  RH  063%=      5-min Rain = 0
KOD1 090001Z 33004KT 03/M03 A3029 RMK A01 T00301034  RH  063%=      5-min Rain = 0
KOD1 090002Z 33004KT 03/M04 A3029 RMK A01 T00291036  RH  062%=      5-min Rain = 0
KOD1 090003Z 33004KT 03/M04 A3029 RMK A01 T00291035  RH  063%=      5-min Rain = 0
KOD1 090004Z 33004KT 03/M03 A3029 RMK A01 T00291034  RH  063%=      5-min Rain = 0
KOD1 090005Z 34004KT 03/M03 A3029 RMK A01 T00291034  RH  063%=      5-min Rain = 0
KOD1 090006Z 34003KT 03/M04 A3029 RMK A01 T00291035  RH  062%=      5-min Rain = 0
KOD1 090007Z 34003KT 03/M04 A3029 RMK A01 T00291035  RH  063%=      5-min Rain = 0
KOD1 090008Z 34003KT 03/M04 A3029 RMK A01 T00291035  RH  063%=      5-min Rain = 0
KOD1 090009Z 34003KT 03/M03 A3029 RMK A01 T00291034  RH  063%=      5-min Rain = 0
KOD1 090010Z 35003KT 03/M03 A3029 RMK A01 T00291033  RH  063%=      5-min Rain = 0
KOD1 090011Z 34003KT 03/M03 A3029 RMK A01 T00291033  RH  064%=      5-min Rain = 0
KOD1 090012Z 35003KT 03/M03 A3029 RMK A01 T00291033  RH  064%=      5-min Rain = 0
KOD1 090013Z 34003KT 03/M03 A3029 RMK A01 T00291033  RH  064%=      5-min Rain = 0
KOD1 090014Z 34003KT 03/M03 A3029 RMK A01 T00291032  RH  064%=      5-min Rain = 0
KOD1 090015Z 34003KT 03/M03 A3029 RMK A01 T00291033  RH  064%=      5-min Rain = 0
KOD1 090016Z 33002KT 03/M03 A3029 RMK A01 T00291032  RH  064%=      5-min Rain = 0
KOD1 090017Z 34002KT 03/M03 A3029 RMK A01 T00281032  RH  064%=      5-min Rain = 0
KOD1 090018Z 34003KT 03/M03 A3029 RMK A01 T00281032  RH  064%=      5-min Rain = 0
KOD1 090019Z 34003KT 03/M03 A3029 RMK A01 T00281032  RH  065%=      5-min Rain = 0
KOD1 090020Z 34003KT 03/M03 A3029 RMK A01 T00281032  RH  065%=      5-min Rain = 0
KOD1 090021Z 34003KT 03/M03 A3029 RMK A01 T00281031  RH  065%=      5-min Rain = 0
KOD1 090022Z 34003KT 03/M03 A3029 RMK A01 T00281031  RH  065%=      5-min Rain = 0
KOD1 090023Z 33003KT 03/M03 A3029 RMK A01 T00271031  RH  065%=      5-min Rain = 0
KOD1 090024Z 33002KT 03/M03 A3029 RMK A01 T00271031  RH  066%=      5-min Rain = 0
KOD1 090025Z 33002KT 03/M03 A3029 RMK A01 T00271030  RH  066%=      5-min Rain = 0
KOD1 090026Z 33003KT 03/M03 A3029 RMK A01 T00271030  RH  066%=      5-min Rain = 0
KOD1 090027Z 32003KT 03/M03 A3029 RMK A01 T00271030  RH  066%=      5-min Rain = 0
KOD1 090028Z 32003KT 03/M03 A3029 RMK A01 T00261030  RH  066%=      5-min Rain = 0
KOD1 090029Z 32003KT 03/M03 A3029 RMK A01 T00261030  RH  067%=      5-min Rain = 0
KOD1 090030Z 32003KT 03/M03 A3029 RMK A01 T00261029  RH  067%=      5-min Rain = 0
KOD1 090031Z 32003KT 03/M03 A3029 RMK A01 T00261030  RH  067%=      5-min Rain = 0
KOD1 090032Z 32003KT 03/M03 A3029 RMK A01 T00261030  RH  067%=      5-min Rain = 0
KOD1 090033Z 32003KT 03/M03 A3029 RMK A01 T00251031  RH  067%=      5-min Rain = 0
KOD1 090034Z 32003KT 03/M03 A3029 RMK A01 T00251031  RH  067%=      5-min Rain = 0
KOD1 090035Z 33003KT 03/M03 A3029 RMK A01 T00251030  RH  067%=      5-min Rain = 0
KOD1 090036Z 32003KT 03/M03 A303 RMK A01 T00251030  RH  067%=      5-min Rain = 0
KOD1 090037Z 32003KT 03/M03 A303 RMK A01 T00251030  RH  067%=      5-min Rain = 0
KOD1 090038Z 32003KT 03/M03 A303 RMK A01 T00251029  RH  068%=      5-min Rain = 0
KOD1 090039Z 32003KT 03/M03 A303 RMK A01 T00251029  RH  068%=      5-min Rain = 0
KOD1 090040Z 31003KT 02/M03 A303 RMK A01 T00241028  RH  068%=      5-min Rain = 0
KOD1 090041Z 31003KT 02/M03 A303 RMK A01 T00241027  RH  069%=      5-min Rain = 0
KOD1 090042Z 31003KT 02/M03 A303 RMK A01 T00241026  RH  070%=      5-min Rain = 0
KOD1 090043Z 31003KT 02/M03 A303 RMK A01 T00241026  RH  070%=      5-min Rain = 0
KOD1 090044Z 31003KT 02/M03 A303 RMK A01 T00231026  RH  070%=      5-min Rain = 0
KOD1 090045Z 31003KT 02/M03 A303 RMK A01 T00231026  RH  070%=      5-min Rain = 0
KOD1 090046Z 31003KT 02/M03 A303 RMK A01 T00231025  RH  071%=      5-min Rain = 0
KOD1 090047Z 32003KT 02/M03 A303 RMK A01 T00231025  RH  071%=      5-min Rain = 0
KOD1 090048Z 32003KT 02/M02 A303 RMK A01 T00221024  RH  071%=      5-min Rain = 0
KOD1 090049Z 32003KT 02/M02 A303 RMK A01 T00221024  RH  071%=      5-min Rain = 0
KOD1 090050Z 32004KT 02/M02 A303 RMK A01 T00221024  RH  072%=      5-min Rain = 0
KOD1 090051Z 32004KT 02/M02 A303 RMK A01 T00221024  RH  072%=      5-min Rain = 0
KOD1 090052Z 32004KT 02/M02 A303 RMK A01 T00221024  RH  072%=      5-min Rain = 0
KOD1 090053Z 32003KT 02/M02 A303 RMK A01 T00211024  RH  072%=      5-min Rain = 0
KOD1 090054Z 32003KT 02/M02 A303 RMK A01 T00211024  RH  072%=      5-min Rain = 0
KOD1 090055Z 32003KT 02/M02 A303 RMK A01 T00211024  RH  072%=      5-min Rain = 0
KOD1 090056Z 31003KT 02/M03 A303 RMK A01 T00211025  RH  072%=      5-min Rain = 0
KOD1 090057Z 31003KT 02/M03 A303 RMK A01 T00221026  RH  071%=      5-min Rain = 0
KOD1 090058Z 31003KT 02/M03 A303 RMK A01 T00221026  RH  071%=      5-min Rain = 0
KOD1 090059Z 31003KT 02/M03 A303 RMK A01 T00221026  RH  071%=      5-min Rain = 0
KOD1 090100Z 31003KT 02/M03 A303 RMK A01 T00221026  RH  071%=      5-min Rain = 0
KOD1 090101Z 31003KT 02/M03 A303 RMK A01 T00221026  RH  070%=      5-min Rain = 0
KOD1 090102Z 31003KT 02/M03 A303 RMK A01 T00221027  RH  070%=      5-min Rain = 0
KOD1 090103Z 31003KT 02/M03 A303 RMK A01 T00221027  RH  070%=      5-min Rain = 0
KOD1 090104Z 31003KT 02/M03 A303 RMK A01 T00231027  RH  070%=      5-min Rain = 0
KOD1 090105Z 31003KT 02/M03 A303 RMK A01 T00231026  RH  070%=      5-min Rain = 0
KOD1 090106Z 31003KT 02/M03 A303 RMK A01 T00231026  RH  070%=      5-min Rain = 0
KOD1 090107Z 31003KT 02/M03 A303 RMK A01 T00231026  RH  070%=      5-min Rain = 0
KOD1 090108Z 31003KT 02/M03 A303 RMK A01 T00231026  RH  070%=      5-min Rain = 0
KOD1 090109Z 31003KT 02/M03 A303 RMK A01 T00231025  RH  071%=      5-min Rain = 0
KOD1 090110Z 30003KT 02/M03 A303 RMK A01 T00231025  RH  071%=      5-min Rain = 0
KOD1 090111Z 30003KT 02/M02 A303 RMK A01 T00231024  RH  071%=      5-min Rain = 0
KOD1 090112Z 30003KT 02/M02 A303 RMK A01 T00231024  RH  071%=      5-min Rain = 0
KOD1 090113Z 30003KT 02/M02 A303 RMK A01 T00231024  RH  071%=      5-min Rain = 0
KOD1 090114Z 30003KT 02/M02 A303 RMK A01 T00221024  RH  071%=      5-min Rain = 0
KOD1 090115Z 30003KT 02/M02 A303 RMK A01 T00221024  RH  071%=      5-min Rain = 0
KOD1 090116Z 30002KT 02/M02 A303 RMK A01 T00221024  RH  071%=      5-min Rain = 0
KOD1 090117Z 30002KT 02/M02 A303 RMK A01 T00221024  RH  071%=      5-min Rain = 0
KOD1 090118Z 30003KT 02/M02 A303 RMK A01 T00221023  RH  072%=      5-min Rain = 0
KOD1 090119Z 30003KT 02/M02 A303 RMK A01 T00221022  RH  072%=      5-min Rain = 0
KOD1 090120Z 30003KT 02/M02 A303 RMK A01 T00221022  RH  073%=      5-min Rain = 0
KOD1 090121Z 30003KT 02/M02 A303 RMK A01 T00221021  RH  073%=      5-min Rain = 0
KOD1 090122Z 30003KT 02/M02 A303 RMK A01 T00221021  RH  073%=      5-min Rain = 0
KOD1 090123Z 30003KT 02/M02 A303 RMK A01 T00221021  RH  073%=      5-min Rain = 0
KOD1 090124Z 30003KT 02/M02 A303 RMK A01 T00221021  RH  073%=      5-min Rain = 0
KOD1 090125Z 30003KT 02/M02 A303 RMK A01 T00221021  RH  073%=      5-min Rain = 0
KOD1 090126Z 30003KT 02/M02 A303 RMK A01 T00221021  RH  073%=      5-min Rain = 0
KOD1 090127Z 30003KT 02/M02 A303 RMK A01 T00221021  RH  074%=      5-min Rain = 0
KOD1 090128Z 30003KT 02/M02 A303 RMK A01 T00221021  RH  074%=      5-min Rain = 0
KOD1 090129Z 30003KT 02/M02 A303 RMK A01 T00221021  RH  074%=      5-min Rain = 0
KOD1 090130Z 30002KT 02/M02 A303 RMK A01 T00221021  RH  073%=      5-min Rain = 0
KOD1 090131Z 30003KT 02/M02 A303 RMK A01 T00221021  RH  074%=      5-min Rain = 0
KOD1 090132Z 30002KT 02/M02 A303 RMK A01 T00221021  RH  074%=      5-min Rain = 0
KOD1 090133Z 30002KT 02/M02 A303 RMK A01 T00221020  RH  074%=      5-min Rain = 0
KOD1 090134Z 30002KT 02/M02 A303 RMK A01 T00221020  RH  074%=      5-min Rain = 0
KOD1 090135Z 30002KT 02/M02 A303 RMK A01 T00221020  RH  074%=      5-min Rain = 0
KOD1 090136Z 30002KT 02/M02 A303 RMK A01 T00221020  RH  074%=      5-min Rain = 0
KOD1 090137Z 30002KT 02/M02 A303 RMK A01 T00221019  RH  074%=      5-min Rain = 0
KOD1 090138Z 30002KT 02/M02 A303 RMK A01 T00221019  RH  074%=      5-min Rain = 0
KOD1 090139Z 30002KT 02/M02 A303 RMK A01 T00221019  RH  074%=      5-min Rain = 0
KOD1 090140Z 30002KT 02/M02 A303 RMK A01 T00221019  RH  074%=      5-min Rain = 0
KOD1 090141Z 30002KT 02/M02 A303 RMK A01 T00221019  RH  074%=      5-min Rain = 0
KOD1 090142Z 30002KT 02/M02 A303 RMK A01 T00221019  RH  074%=      5-min Rain = 0
KOD1 090143Z 30002KT 02/M02 A303 RMK A01 T00221019  RH  075%=      5-min Rain = 0
KOD1 090144Z 30002KT 02/M02 A303 RMK A01 T00221018  RH  075%=      5-min Rain = 0
KOD1 090145Z 30002KT 02/M02 A303 RMK A01 T00221018  RH  075%=      5-min Rain = 0
KOD1 090146Z 30002KT 02/M02 A303 RMK A01 T00221019  RH  075%=      5-min Rain = 0
KOD1 090147Z 30002KT 02/M02 A303 RMK A01 T00211019  RH  074%=      5-min Rain = 0
KOD1 090148Z 30001KT 02/M02 A303 RMK A01 T00211020  RH  074%=      5-min Rain = 0
KOD1 090149Z 30001KT 02/M02 A303 RMK A01 T00211020  RH  074%=      5-min Rain = 0
KOD1 090150Z 31001KT 02/M02 A303 RMK A01 T00211020  RH  074%=      5-min Rain = 0
KOD1 090151Z 31001KT 02/M02 A303 RMK A01 T00211021  RH  074%=      5-min Rain = 0
KOD1 090152Z 30002KT 02/M02 A303 RMK A01 T00211021  RH  074%=      5-min Rain = 0
KOD1 090153Z 30001KT 02/M02 A303 RMK A01 T00211021  RH  074%=      5-min Rain = 0
KOD1 090154Z 30001KT 02/M02 A303 RMK A01 T00211020  RH  074%=      5-min Rain = 0
KOD1 090155Z 29001KT 02/M02 A303 RMK A01 T00221020  RH  074%=      5-min Rain = 0
KOD1 090156Z 29001KT 02/M02 A3031 RMK A01 T00221019  RH  075%=      5-min Rain = 0
KOD1 090157Z 29001KT 02/M02 A3031 RMK A01 T00221018  RH  075%=      5-min Rain = 0
KOD1 090158Z 30001KT 02/M02 A3031 RMK A01 T00221017  RH  075%=      5-min Rain = 0
KOD1 090159Z 31001KT 02/M02 A3031 RMK A01 T00221018  RH  075%=      5-min Rain = 0
KOD1 090200Z 32001KT 02/M02 A3031 RMK A01 T00221018  RH  075%=      5-min Rain = 0
KOD1 090201Z 32001KT 02/M02 A3031 RMK A01 T00221017  RH  075%=      5-min Rain = 0
KOD1 090202Z 33001KT 02/M02 A3031 RMK A01 T00221017  RH  075%=      5-min Rain = 0
KOD1 090203Z 33002KT 02/M02 A3031 RMK A01 T00221017  RH  075%=      5-min Rain = 0
KOD1 090204Z 32002KT 02/M02 A3031 RMK A01 T00221017  RH  075%=      5-min Rain = 0
KOD1 090205Z 33002KT 02/M02 A3031 RMK A01 T00221017  RH  075%=      5-min Rain = 0
KOD1 090206Z 33002KT 02/M02 A3031 RMK A01 T00221017  RH  075%=      5-min Rain = 0
KOD1 090207Z 33002KT 02/M02 A3031 RMK A01 T00221018  RH  075%=      5-min Rain = 0
KOD1 090208Z 34003KT 02/M02 A3031 RMK A01 T00221020  RH  073%=      5-min Rain = 0
KOD1 090209Z 35004KT 02/M02 A3031 RMK A01 T00221024  RH  071%=      5-min Rain = 0
KOD1 090210Z 35003KT 02/M03 A3031 RMK A01 T00231026  RH  070%=      5-min Rain = 0
KOD1 090211Z 36003KT 02/M03 A3031 RMK A01 T00241027  RH  069%=      5-min Rain = 0
KOD1 090212Z 36004KT 02/M03 A3031 RMK A01 T00241028  RH  069%=      5-min Rain = 0
KOD1 090213Z 00004KT 03/M03 A3031 RMK A01 T00251028  RH  068%=      5-min Rain = 0
KOD1 090214Z 00004KT 03/M03 A3031 RMK A01 T00251028  RH  068%=      5-min Rain = 0
KOD1 090215Z 01003KT 03/M03 A3031 RMK A01 T00251029  RH  067%=      5-min Rain = 0
KOD1 090216Z 01004KT 03/M03 A3031 RMK A01 T00261027  RH  068%=      5-min Rain = 0
KOD1 090217Z 01004KT 03/M03 A3031 RMK A01 T00261027  RH  068%=      5-min Rain = 0
KOD1 090218Z 01004KT 03/M03 A3031 RMK A01 T00261026  RH  068%=      5-min Rain = 0
KOD1 090219Z 01004KT 03/M03 A3031 RMK A01 T00261027  RH  068%=      5-min Rain = 0
KOD1 090220Z 01004KT 03/M03 A3031 RMK A01 T00261026  RH  068%=      5-min Rain = 0
KOD1 090221Z 01005KT 03/M03 A3031 RMK A01 T00261026  RH  069%=      5-min Rain = 0
KOD1 090222Z 01005KT 03/M03 A3031 RMK A01 T00261026  RH  069%=      5-min Rain = 0
KOD1 090223Z 02005KT 03/M03 A3031 RMK A01 T00261026  RH  068%=      5-min Rain = 0
KOD1 090224Z 01005KT 03/M03 A3031 RMK A01 T00261026  RH  068%=      5-min Rain = 0
KOD1 090225Z 02004KT 03/M03 A3031 RMK A01 T00261026  RH  068%=      5-min Rain = 0
KOD1 090226Z 02004KT 03/M03 A3031 RMK A01 T00261026  RH  069%=      5-min Rain = 0
KOD1 090227Z 01004KT 03/M03 A3031 RMK A01 T00261026  RH  069%=      5-min Rain = 0
KOD1 090228Z 01005KT 03/M03 A3031 RMK A01 T00261025  RH  069%=      5-min Rain = 0
KOD1 090229Z 02004KT 03/M03 A3031 RMK A01 T00261025  RH  069%=      5-min Rain = 0
KOD1 090230Z 02004KT 03/M03 A3031 RMK A01 T00261025  RH  069%=      5-min Rain = 0
KOD1 090231Z 02004KT 03/M03 A3031 RMK A01 T00261025  RH  069%=      5-min Rain = 0
KOD1 090232Z 02004KT 03/M03 A3031 RMK A01 T00261025  RH  069%=      5-min Rain = 0
KOD1 090233Z 02004KT 03/M03 A3031 RMK A01 T00251025  RH  069%=      5-min Rain = 0
KOD1 090234Z 01004KT 03/M03 A3031 RMK A01 T00251025  RH  070%=      5-min Rain = 0
KOD1 090235Z 01004KT 03/M02 A3031 RMK A01 T00251024  RH  070%=      5-min Rain = 0
KOD1 090236Z 01004KT 03/M03 A3031 RMK A01 T00251025  RH  070%=      5-min Rain = 0
KOD1 090237Z 01004KT 02/M02 A3031 RMK A01 T00241024  RH  070%=      5-min Rain = 0
KOD1 090238Z 01003KT 02/M02 A3031 RMK A01 T00241024  RH  071%=      5-min Rain = 0
KOD1 090239Z 01004KT 02/M02 A3031 RMK A01 T00241023  RH  071%=      5-min Rain = 0
KOD1 090240Z 01004KT 02/M02 A3031 RMK A01 T00241022  RH  072%=      5-min Rain = 0
KOD1 090241Z 01004KT 02/M02 A3031 RMK A01 T00231021  RH  072%=      5-min Rain = 0
KOD1 090242Z 01004KT 02/M02 A3031 RMK A01 T00231021  RH  073%=      5-min Rain = 0
KOD1 090243Z 01004KT 02/M02 A3031 RMK A01 T00221020  RH  073%=      5-min Rain = 0
KOD1 090244Z 00005KT 02/M02 A3031 RMK A01 T00221020  RH  074%=      5-min Rain = 0
KOD1 090245Z 01004KT 02/M02 A3031 RMK A01 T00211019  RH  075%=      5-min Rain = 0
KOD1 090246Z 01004KT 02/M02 A3031 RMK A01 T00211019  RH  075%=      5-min Rain = 0
KOD1 090247Z 00004KT 02/M02 A3031 RMK A01 T00201019  RH  075%=      5-min Rain = 0
KOD1 090248Z 00004KT 02/M02 A3031 RMK A01 T00201019  RH  076%=      5-min Rain = 0
KOD1 090249Z 00004KT 02/M02 A3031 RMK A01 T00191018  RH  076%=      5-min Rain = 0
KOD1 090250Z 00004KT 02/M02 A3031 RMK A01 T00191018  RH  077%=      5-min Rain = 0
KOD1 090251Z 00004KT 02/M02 A3031 RMK A01 T00181018  RH  077%=      5-min Rain = 0
KOD1 090252Z 35004KT 02/M02 A3031 RMK A01 T00181018  RH  077%=      5-min Rain = 0
KOD1 090253Z 35003KT 02/M02 A3031 RMK A01 T00171018  RH  077%=      5-min Rain = 0
KOD1 090254Z 35004KT 02/M02 A3031 RMK A01 T00171018  RH  078%=      5-min Rain = 0
KOD1 090255Z 35004KT 02/M02 A3031 RMK A01 T00161018  RH  078%=      5-min Rain = 0
KOD1 090256Z 35003KT 02/M02 A3031 RMK A01 T00161018  RH  078%=      5-min Rain = 0
KOD1 090257Z 35004KT 02/M02 A3031 RMK A01 T00161017  RH  079%=      5-min Rain = 0
KOD1 090258Z 35004KT 02/M02 A3031 RMK A01 T00151017  RH  079%=      5-min Rain = 0
KOD1 090259Z 35004KT 02/M02 A3031 RMK A01 T00151017  RH  079%=      5-min Rain = 0
KOD1 090300Z 35004KT 02/M02 A3031 RMK A01 T00151018  RH  079%=      5-min Rain = 0
KOD1 090301Z 34004KT 01/M02 A3031 RMK A01 T00141018  RH  079%=      5-min Rain = 0
KOD1 090302Z 34004KT 01/M02 A3031 RMK A01 T00141018  RH  080%=      5-min Rain = 0
KOD1 090303Z 33004KT 01/M02 A3031 RMK A01 T00131018  RH  080%=      5-min Rain = 0
KOD1 090304Z 33005KT 01/M02 A3031 RMK A01 T00131018  RH  080%=      5-min Rain = 0
KOD1 090305Z 33005KT 01/M02 A3031 RMK A01 T00121018  RH  080%=      5-min Rain = 0
KOD1 090306Z 33005KT 01/M02 A3031 RMK A01 T00121019  RH  080%=      5-min Rain = 0
KOD1 090307Z 33005KT 01/M02 A3031 RMK A01 T00111020  RH  080%=      5-min Rain = 0
KOD1 090308Z 33005KT 01/M02 A3031 RMK A01 T00111020  RH  080%=      5-min Rain = 0
KOD1 090309Z 34005KT 01/M02 A3031 RMK A01 T00101021  RH  080%=      5-min Rain = 0
KOD1 090310Z 34004KT 01/M02 A3031 RMK A01 T00101022  RH  079%=      5-min Rain = 0
KOD1 090311Z 35004KT 01/M02 A3031 RMK A01 T00101022  RH  079%=      5-min Rain = 0
KOD1 090312Z 34004KT 01/M02 A3031 RMK A01 T00101022  RH  079%=      5-min Rain = 0
KOD1 090313Z 34004KT 01/M02 A3031 RMK A01 T00111022  RH  079%=      5-min Rain = 0
KOD1 090314Z 34004KT 01/M02 A3031 RMK A01 T00111023  RH  078%=      5-min Rain = 0
KOD1 090315Z 33004KT 01/M02 A3031 RMK A01 T00111023  RH  078%=      5-min Rain = 0
KOD1 090316Z 33004KT 01/M02 A3031 RMK A01 T00101023  RH  078%=      5-min Rain = 0
KOD1 090317Z 33004KT 01/M02 A3031 RMK A01 T00101024  RH  078%=      5-min Rain = 0
KOD1 090318Z 32004KT 01/M02 A3031 RMK A01 T00091024  RH  078%=      5-min Rain = 0
KOD1 090319Z 33004KT 01/M03 A3031 RMK A01 T00091025  RH  078%=      5-min Rain = 0
KOD1 090320Z 33005KT 01/M03 A3031 RMK A01 T00091025  RH  078%=      5-min Rain = 0
KOD1 090321Z 33005KT 01/M03 A3031 RMK A01 T00081026  RH  078%=      5-min Rain = 0
KOD1 090322Z 34004KT 01/M03 A3032 RMK A01 T00081026  RH  078%=      5-min Rain = 0
KOD1 090323Z 34004KT 01/M03 A3032 RMK A01 T00081026  RH  078%=      5-min Rain = 0
KOD1 090324Z 34004KT 01/M03 A3032 RMK A01 T00071026  RH  079%=      5-min Rain = 0
KOD1 090325Z 34004KT 01/M03 A3032 RMK A01 T00071026  RH  079%=      5-min Rain = 0
KOD1 090326Z 33004KT 01/M03 A3032 RMK A01 T00071026  RH  079%=      5-min Rain = 0
KOD1 090327Z 33005KT 01/M03 A3032 RMK A01 T00071026  RH  079%=      5-min Rain = 0
KOD1 090328Z 34004KT 01/M03 A3032 RMK A01 T00061026  RH  079%=      5-min Rain = 0
KOD1 090329Z 34005KT 01/M03 A3032 RMK A01 T00061026  RH  079%=      5-min Rain = 0
KOD1 090330Z 34005KT 01/M03 A3032 RMK A01 T00061026  RH  079%=      5-min Rain = 0
KOD1 090331Z 35004KT 01/M03 A3032 RMK A01 T00061026  RH  079%=      5-min Rain = 0
KOD1 090332Z 35005KT 01/M03 A3032 RMK A01 T00061026  RH  080%=      5-min Rain = 0
KOD1 090333Z 35005KT 01/M03 A3032 RMK A01 T00051026  RH  079%=      5-min Rain = 0
KOD1 090334Z 35004KT 01/M03 A3032 RMK A01 T00051026  RH  080%=      5-min Rain = 0
KOD1 090335Z 35004KT 01/M03 A3032 RMK A01 T00051026  RH  080%=      5-min Rain = 0
KOD1 090336Z 35004KT 01/M03 A3032 RMK A01 T00051025  RH  081%=      5-min Rain = 0
KOD1 090337Z 35005KT 00/M02 A3031 RMK A01 T00041024  RH  081%=      5-min Rain = 0
KOD1 090338Z 35005KT 00/M03 A3031 RMK A01 T00041025  RH  081%=      5-min Rain = 0
KOD1 090339Z 35005KT 00/M03 A3031 RMK A01 T00041025  RH  081%=      5-min Rain = 0
KOD1 090340Z 35005KT 00/M03 A3031 RMK A01 T00031025  RH  081%=      5-min Rain = 0
KOD1 090341Z 35005KT 00/M03 A3031 RMK A01 T00031025  RH  082%=      5-min Rain = 0
KOD1 090342Z 35005KT 00/M03 A3031 RMK A01 T00031025  RH  082%=      5-min Rain = 0
KOD1 090343Z 35005KT 00/M03 A3031 RMK A01 T00021025  RH  082%=      5-min Rain = 0
KOD1 090344Z 35005KT 00/M03 A3031 RMK A01 T00021026  RH  082%=      5-min Rain = 0
KOD1 090345Z 00005KT 00/M03 A3031 RMK A01 T00021026  RH  082%=      5-min Rain = 0
KOD1 090346Z 00005KT 00/M03 A3031 RMK A01 T00011026  RH  082%=      5-min Rain = 0
KOD1 090347Z 00005KT 00/M03 A3031 RMK A01 T00011026  RH  082%=      5-min Rain = 0
KOD1 090348Z 00005KT 00/03 A3031 RMK A01 T00000-27  RH  082%=      5-min Rain = 0
KOD1 090349Z 36005KT 00/03 A3031 RMK A01 T00000-27  RH  082%=      5-min Rain = 0
KOD1 090350Z 00005KT 00/03 A3031 RMK A01 T00-00-27  RH  082%=      5-min Rain = 0
KOD1 090351Z 36005KT M00/M03 A3031 RMK A01 T10011027  RH  083%=      5-min Rain = 0
KOD1 090352Z 35006KT M00/M03 A3031 RMK A01 T10011027  RH  083%=      5-min Rain = 0
KOD1 090353Z 00005KT M00/M03 A3031 RMK A01 T10011027  RH  083%=      5-min Rain = 0
KOD1 090354Z 36006KT M00/M03 A3031 RMK A01 T10011027  RH  083%=      5-min Rain = 0
KOD1 090355Z 36006KT M00/M03 A3031 RMK A01 T10011027  RH  083%=      5-min Rain = 0
KOD1 090356Z 00006KT M00/M03 A3031 RMK A01 T10011027  RH  083%=      5-min Rain = 0
KOD1 090357Z 00005KT M00/M03 A3031 RMK A01 T10011027  RH  083%=      5-min Rain = 0
KOD1 090358Z 36006KT M00/M03 A3031 RMK A01 T10011027  RH  083%=      5-min Rain = 0
KOD1 090359Z 00006KT M00/M03 A3031 RMK A01 T10021028  RH  083%=      5-min Rain = 0
KOD1 090400Z 00006KT M00/M03 A3032 RMK A01 T10011027  RH  083%=      5-min Rain = 0
KOD1 090401Z 00006KT M00/M03 A3032 RMK A01 T10011027  RH  083%=      5-min Rain = 0
KOD1 090402Z 00006KT M00/M03 A3032 RMK A01 T10011027  RH  083%=      5-min Rain = 0
KOD1 090403Z 00006KT M00/M03 A3032 RMK A01 T10021028  RH  083%=      5-min Rain = 0
KOD1 090404Z 00006KT M00/M03 A3032 RMK A01 T10021028  RH  083%=      5-min Rain = 0
KOD1 090405Z 00006KT M00/M03 A3032 RMK A01 T10031028  RH  083%=      5-min Rain = 0
KOD1 090406Z 00006KT M00/M03 A3032 RMK A01 T10031029  RH  083%=      5-min Rain = 0
KOD1 090407Z 36006KT M00/M03 A3032 RMK A01 T10041029  RH  083%=      5-min Rain = 0
KOD1 090408Z 00006KT M00/M03 A3032 RMK A01 T10041029  RH  084%=      5-min Rain = 0
KOD1 090409Z 00006KT M00/M03 A3032 RMK A01 T10041029  RH  084%=      5-min Rain = 0
KOD1 090410Z 00006KT M00/M03 A3032 RMK A01 T10041029  RH  084%=      5-min Rain = 0
KOD1 090411Z 00006KT M01/M03 A3032 RMK A01 T10051030  RH  083%=      5-min Rain = 0
KOD1 090412Z 00006KT M01/M03 A3032 RMK A01 T10061031  RH  083%=      5-min Rain = 0
KOD1 090413Z 00006KT M01/M03 A3032 RMK A01 T10071032  RH  083%=      5-min Rain = 0
KOD1 090414Z 01006KT M01/M03 A3032 RMK A01 T10081033  RH  083%=      5-min Rain = 0
KOD1 090415Z 01006KT M01/M04 A3032 RMK A01 T10101035  RH  083%=      5-min Rain = 0
KOD1 090416Z 01006KT M01/M04 A3032 RMK A01 T10111035  RH  084%=      5-min Rain = 0
KOD1 090417Z 01006KT M01/M03 A3032 RMK A01 T10121034  RH  085%=      5-min Rain = 0
KOD1 090418Z 01006KT M01/M03 A3032 RMK A01 T10121034  RH  085%=      5-min Rain = 0
KOD1 090419Z 01006KT M01/M03 A3032 RMK A01 T10121034  RH  085%=      5-min Rain = 0
KOD1 090420Z 00006KT M01/M03 A3032 RMK A01 T10131034  RH  085%=      5-min Rain = 0
KOD1 090421Z 00006KT M01/M03 A3032 RMK A01 T10131034  RH  086%=      5-min Rain = 0
KOD1 090422Z 00006KT M01/M03 A3032 RMK A01 T10131033  RH  086%=      5-min Rain = 0
KOD1 090423Z 00006KT M01/M03 A3032 RMK A01 T10121033  RH  086%=      5-min Rain = 0
KOD1 090424Z 36006KT M01/M03 A3032 RMK A01 T10121032  RH  086%=      5-min Rain = 0
KOD1 090425Z 00006KT M01/M03 A3032 RMK A01 T10121032  RH  086%=      5-min Rain = 0
KOD1 090426Z 00006KT M01/M03 A3032 RMK A01 T10111032  RH  086%=      5-min Rain = 0
KOD1 090427Z 00006KT M01/M03 A3032 RMK A01 T10111032  RH  086%=      5-min Rain = 0
KOD1 090428Z 00007KT M01/M03 A3032 RMK A01 T10111032  RH  086%=      5-min Rain = 0
KOD1 090429Z 00007KT M01/M03 A3032 RMK A01 T10121032  RH  086%=      5-min Rain = 0
KOD1 090430Z 00007KT M01/M03 A3032 RMK A01 T10121033  RH  086%=      5-min Rain = 0
KOD1 090431Z 00007KT M01/M03 A3032 RMK A01 T10121033  RH  086%=      5-min Rain = 0
KOD1 090432Z 00007KT M01/M03 A3032 RMK A01 T10121033  RH  086%=      5-min Rain = 0
KOD1 090433Z 00007KT M01/M03 A3032 RMK A01 T10121033  RH  086%=      5-min Rain = 0
KOD1 090434Z 00007KT M01/M03 A3032 RMK A01 T10121032  RH  086%=      5-min Rain = 0
KOD1 090435Z 00007KT M01/M03 A3032 RMK A01 T10111032  RH  086%=      5-min Rain = 0
KOD1 090436Z 00007KT M01/M03 A3032 RMK A01 T10111032  RH  086%=      5-min Rain = 0
KOD1 090437Z 00007KT M01/M03 A3032 RMK A01 T10101032  RH  085%=      5-min Rain = 0
KOD1 090438Z 00007KT M01/M03 A3032 RMK A01 T10101032  RH  085%=      5-min Rain = 0
KOD1 090439Z 00007KT M01/M03 A3032 RMK A01 T10091032  RH  084%=      5-min Rain = 0
KOD1 090440Z 00007KT M01/M03 A3032 RMK A01 T10091033  RH  084%=      5-min Rain = 0
KOD1 090441Z 36006KT M01/M03 A3032 RMK A01 T10091033  RH  084%=      5-min Rain = 0
KOD1 090442Z 36006KT M01/M03 A3032 RMK A01 T10091033  RH  083%=      5-min Rain = 0
KOD1 090443Z 36006KT M01/M03 A3032 RMK A01 T10091034  RH  083%=      5-min Rain = 0
KOD1 090444Z 35005KT M01/M03 A3032 RMK A01 T10091034  RH  083%=      5-min Rain = 0
KOD1 090445Z 35005KT M01/M03 A3032 RMK A01 T10101034  RH  083%=      5-min Rain = 0
KOD1 090446Z 35005KT M01/M03 A3032 RMK A01 T10101034  RH  084%=      5-min Rain = 0
KOD1 090447Z 35005KT M01/M04 A3032 RMK A01 T10101035  RH  084%=      5-min Rain = 0
KOD1 090448Z 35005KT M01/M04 A3033 RMK A01 T10111035  RH  084%=      5-min Rain = 0
KOD1 090449Z 34005KT M01/M04 A3033 RMK A01 T10111035  RH  084%=      5-min Rain = 0
KOD1 090450Z 34005KT M01/M04 A3033 RMK A01 T10111035  RH  084%=      5-min Rain = 0
KOD1 090451Z 34005KT M01/M04 A3033 RMK A01 T10121036  RH  084%=      5-min Rain = 0
KOD1 090452Z 35005KT M01/M04 A3033 RMK A01 T10121036  RH  084%=      5-min Rain = 0
KOD1 090453Z 35005KT M01/M04 A3033 RMK A01 T10121036  RH  084%=      5-min Rain = 0
KOD1 090454Z 35005KT M01/M04 A3033 RMK A01 T10121035  RH  084%=      5-min Rain = 0
KOD1 090455Z 36006KT M01/M03 A3033 RMK A01 T10111034  RH  084%=      5-min Rain = 0
KOD1 090456Z 00006KT M01/M03 A3033 RMK A01 T10101034  RH  084%=      5-min Rain = 0
KOD1 090457Z 00006KT M01/M03 A3033 RMK A01 T10091034  RH  083%=      5-min Rain = 0
KOD1 090458Z 00006KT M01/M03 A3033 RMK A01 T10091034  RH  083%=      5-min Rain = 0
KOD1 090459Z 00006KT M01/M03 A3033 RMK A01 T10081034  RH  083%=      5-min Rain = 0
KOD1 090500Z 00006KT M01/M03 A3033 RMK A01 T10081034  RH  082%=      5-min Rain = 0
KOD1 090501Z 00006KT M01/M04 A3033 RMK A01 T10081035  RH  082%=      5-min Rain = 0
KOD1 090502Z 00006KT M01/M04 A3032 RMK A01 T10081035  RH  082%=      5-min Rain = 0
KOD1 090503Z 00006KT M01/M04 A3033 RMK A01 T10081035  RH  082%=      5-min Rain = 0
KOD1 090504Z 00006KT M01/M04 A3033 RMK A01 T10081035  RH  082%=      5-min Rain = 0
KOD1 090505Z 00006KT M01/M04 A3033 RMK A01 T10071035  RH  082%=      5-min Rain = 0
KOD1 090506Z 00005KT M01/M04 A3033 RMK A01 T10071035  RH  081%=      5-min Rain = 0
KOD1 090507Z 00005KT M01/M04 A3033 RMK A01 T10071036  RH  081%=      5-min Rain = 0
KOD1 090508Z 00005KT M01/M04 A3033 RMK A01 T10081036  RH  081%=      5-min Rain = 0
KOD1 090509Z 00004KT M01/M04 A3033 RMK A01 T10081037  RH  081%=      5-min Rain = 0
KOD1 090510Z 36004KT M01/M04 A3033 RMK A01 T10091037  RH  081%=      5-min Rain = 0
KOD1 090511Z 35003KT M01/M04 A3033 RMK A01 T10091038  RH  081%=      5-min Rain = 0
KOD1 090512Z 34002KT M01/M04 A3033 RMK A01 T10111040  RH  081%=      5-min Rain = 0
KOD1 090513Z 33002KT M01/M04 A3033 RMK A01 T10121040  RH  081%=      5-min Rain = 0
KOD1 090514Z 30001KT M01/M04 A3033 RMK A01 T10121040  RH  082%=      5-min Rain = 0
KOD1 090515Z 28001KT M01/M04 A3033 RMK A01 T10131040  RH  082%=      5-min Rain = 0
KOD1 090516Z 28001KT M01/M04 A3033 RMK A01 T10141040  RH  082%=      5-min Rain = 0
KOD1 090517Z 29001KT M01/M04 A3033 RMK A01 T10141040  RH  083%=      5-min Rain = 0
KOD1 090518Z 29001KT M02/M04 A3033 RMK A01 T10151040  RH  083%=      5-min Rain = 0
KOD1 090519Z 31002KT M02/M04 A3033 RMK A01 T10151041  RH  083%=      5-min Rain = 0
KOD1 090520Z 32002KT M02/M04 A3033 RMK A01 T10161041  RH  083%=      5-min Rain = 0
KOD1 090521Z 33002KT M02/M04 A3033 RMK A01 T10161041  RH  083%=      5-min Rain = 0
KOD1 090522Z 32002KT M02/M04 A3033 RMK A01 T10161041  RH  083%=      5-min Rain = 0
KOD1 090523Z 32003KT M02/M04 A3033 RMK A01 T10161041  RH  083%=      5-min Rain = 0
KOD1 090524Z 33003KT M02/M04 A3033 RMK A01 T10161041  RH  084%=      5-min Rain = 0
KOD1 090525Z 33003KT M02/M04 A3033 RMK A01 T10161040  RH  084%=      5-min Rain = 0
KOD1 090526Z 33003KT M02/M04 A3033 RMK A01 T10161040  RH  083%=      5-min Rain = 0
KOD1 090527Z 32003KT M02/M04 A3033 RMK A01 T10151040  RH  083%=      5-min Rain = 0
KOD1 090528Z 33003KT M02/M04 A3033 RMK A01 T10151040  RH  083%=      5-min Rain = 0
KOD1 090529Z 33003KT M02/M04 A3033 RMK A01 T10151040  RH  083%=      5-min Rain = 0
KOD1 090530Z 33003KT M01/M04 A3033 RMK A01 T10141040  RH  082%=      5-min Rain = 0
KOD1 090531Z 33003KT M01/M04 A3033 RMK A01 T10141040  RH  082%=      5-min Rain = 0
KOD1 090532Z 33003KT M01/M04 A3033 RMK A01 T10131041  RH  082%=      5-min Rain = 0
KOD1 090533Z 33003KT M01/M04 A3033 RMK A01 T10131041  RH  081%=      5-min Rain = 0
KOD1 090534Z 32003KT M01/M04 A3033 RMK A01 T10141042  RH  081%=      5-min Rain = 0
KOD1 090535Z 31003KT M02/M04 A3033 RMK A01 T10151043  RH  081%=      5-min Rain = 0
KOD1 090536Z 31003KT M02/M04 A3033 RMK A01 T10151042  RH  082%=      5-min Rain = 0
KOD1 090537Z 31003KT M02/M04 A3033 RMK A01 T10151042  RH  082%=      5-min Rain = 0
KOD1 090538Z 30003KT M02/M04 A3033 RMK A01 T10151041  RH  082%=      5-min Rain = 0
KOD1 090539Z 30003KT M01/M04 A3033 RMK A01 T10141041  RH  082%=      5-min Rain = 0
KOD1 090540Z 29003KT M01/M04 A3033 RMK A01 T10141041  RH  082%=      5-min Rain = 0
KOD1 090541Z 29003KT M01/M04 A3033 RMK A01 T10131041  RH  082%=      5-min Rain = 0
KOD1 090542Z 29003KT M01/M04 A3033 RMK A01 T10131040  RH  082%=      5-min Rain = 0
KOD1 090543Z 29003KT M01/M04 A3033 RMK A01 T10141041  RH  082%=      5-min Rain = 0
KOD1 090544Z 29004KT M01/M04 A3033 RMK A01 T10141041  RH  082%=      5-min Rain = 0
KOD1 090545Z 30004KT M01/M04 A3033 RMK A01 T10141042  RH  082%=      5-min Rain = 0
KOD1 090546Z 30004KT M02/M04 A3033 RMK A01 T10151042  RH  082%=      5-min Rain = 0
KOD1 090547Z 30004KT M02/M04 A3033 RMK A01 T10151042  RH  082%=      5-min Rain = 0
KOD1 090548Z 30004KT M02/M04 A3033 RMK A01 T10151042  RH  082%=      5-min Rain = 0
KOD1 090549Z 30004KT M02/M04 A3033 RMK A01 T10151042  RH  082%=      5-min Rain = 0
KOD1 090550Z 30004KT M02/M04 A3033 RMK A01 T10151042  RH  082%=      5-min Rain = 0
KOD1 090551Z 30004KT M02/M04 A3033 RMK A01 T10161042  RH  082%=      5-min Rain = 0
KOD1 090552Z 30005KT M02/M04 A3033 RMK A01 T10161043  RH  082%=      5-min Rain = 0
KOD1 090553Z 30005KT M02/M04 A3033 RMK A01 T10171043  RH  083%=      5-min Rain = 0
KOD1 090554Z 29005KT M02/M04 A3033 RMK A01 T10171042  RH  083%=      5-min Rain = 0
KOD1 090555Z 30005KT M02/M04 A3033 RMK A01 T10181042  RH  084%=      5-min Rain = 0
KOD1 090556Z 29005KT M02/M04 A3033 RMK A01 T10191043  RH  084%=      5-min Rain = 0
KOD1 090557Z 29005KT M02/M04 A3033 RMK A01 T10201043  RH  084%=      5-min Rain = 0
KOD1 090558Z 30005KT M02/M04 A3033 RMK A01 T10211043  RH  085%=      5-min Rain = 0
KOD1 090559Z 30006KT M02/M04 A3033 RMK A01 T10211042  RH  086%=      5-min Rain = 0

Page generated in 0.0705 seconds.